<?xml version="1.0" encoding="UTF-8" standalone="no" ?>
<gpx xmlns="http://www.topografix.com/GPX/1/1" xmlns:xsi="http://www.w3.org/2001/XMLSchema-instance" xsi:schemaLocation="http://www.topografix.com/GPX/1/1 http://www.topografix.com/GPX/1/1/gpx.xsd" version="1.1" creator="VisuGPX - https://www.visugpx.com">
  <metadata>
    <name>Circuit N°83 avec boucle +</name>
  </metadata>
  <trk>
    <name><![CDATA[13849695-vtt-montagne-bourbonnaise-N°83]]></name>
    <extensions>
      <line xmlns="http://www.topografix.com/GPX/gpx_style/0/2">
        <color>0000FF</color>
        <width>4</width>
      </line>
    </extensions>
    <trkseg>
      <trkpt lat="46.10456" lon="3.46372">
        <ele>425</ele>
        <time>2022-02-23T20:42:08Z</time>
      </trkpt>
      <trkpt lat="46.10475" lon="3.46422">
        <ele>426</ele>
        <time>2022-02-23T20:42:17Z</time>
      </trkpt>
      <trkpt lat="46.10424" lon="3.46459">
        <ele>426</ele>
        <time>2022-02-23T20:42:31Z</time>
      </trkpt>
      <trkpt lat="46.10429" lon="3.46579">
        <ele>426.5</ele>
        <time>2022-02-23T20:42:50Z</time>
      </trkpt>
      <trkpt lat="46.10435" lon="3.46677">
        <ele>420.7</ele>
        <time>2022-02-23T20:43:06Z</time>
      </trkpt>
      <trkpt lat="46.10488" lon="3.46661">
        <ele>422</ele>
        <time>2022-02-23T20:43:20Z</time>
      </trkpt>
      <trkpt lat="46.10501" lon="3.46666">
        <ele>422</ele>
        <time>2022-02-23T20:43:22Z</time>
      </trkpt>
      <trkpt lat="46.10525" lon="3.46839">
        <ele>406.9</ele>
      </trkpt>
      <trkpt lat="46.10524" lon="3.46859">
        <ele>404.7</ele>
        <time>2022-02-23T20:43:53Z</time>
      </trkpt>
      <trkpt lat="46.10474" lon="3.46874">
        <ele>406.1</ele>
      </trkpt>
      <trkpt lat="46.1046" lon="3.46877">
        <ele>406.8</ele>
        <time>2022-02-23T20:44:07Z</time>
      </trkpt>
      <trkpt lat="46.10419" lon="3.46898">
        <ele>405.7</ele>
        <time>2022-02-23T20:44:20Z</time>
      </trkpt>
      <trkpt lat="46.10393" lon="3.46911">
        <ele>403.7</ele>
      </trkpt>
      <trkpt lat="46.10353" lon="3.46927">
        <ele>402.6</ele>
        <time>2022-02-23T20:44:36Z</time>
      </trkpt>
      <trkpt lat="46.10298" lon="3.46952">
        <ele>402.5</ele>
        <time>2022-02-23T20:44:48Z</time>
      </trkpt>
      <trkpt lat="46.10338" lon="3.47082">
        <ele>388</ele>
        <time>2022-02-23T20:45:11Z</time>
      </trkpt>
      <trkpt lat="46.10274" lon="3.47117">
        <ele>388</ele>
        <time>2022-02-23T20:45:27Z</time>
      </trkpt>
      <trkpt lat="46.10201" lon="3.47242">
        <ele>391.4</ele>
        <time>2022-02-23T20:45:54Z</time>
      </trkpt>
      <trkpt lat="46.10121" lon="3.47423">
        <ele>396</ele>
        <time>2022-02-23T20:46:29Z</time>
      </trkpt>
      <trkpt lat="46.10118" lon="3.47523">
        <ele>391</ele>
        <time>2022-02-23T20:46:44Z</time>
      </trkpt>
      <trkpt lat="46.10088" lon="3.47543">
        <ele>394</ele>
        <time>2022-02-23T20:46:52Z</time>
      </trkpt>
      <trkpt lat="46.10157" lon="3.4768">
        <ele>384</ele>
        <time>2022-02-23T20:47:20Z</time>
      </trkpt>
      <trkpt lat="46.10007" lon="3.47896">
        <ele>387</ele>
        <time>2022-02-23T20:48:09Z</time>
      </trkpt>
      <trkpt lat="46.09913" lon="3.48023">
        <ele>379</ele>
        <time>2022-02-23T20:48:39Z</time>
      </trkpt>
      <trkpt lat="46.09899" lon="3.48061">
        <ele>377</ele>
        <time>2022-02-23T20:48:46Z</time>
      </trkpt>
      <trkpt lat="46.09895" lon="3.48057">
        <ele>367</ele>
      </trkpt>
      <trkpt lat="46.09841" lon="3.48031">
        <ele>370.2</ele>
        <time>2022-02-23T20:49:00Z</time>
      </trkpt>
      <trkpt lat="46.09835" lon="3.4798">
        <ele>372.6</ele>
        <time>2022-02-23T20:49:08Z</time>
      </trkpt>
      <trkpt lat="46.09809" lon="3.47973">
        <ele>372.9</ele>
      </trkpt>
      <trkpt lat="46.09786" lon="3.47967">
        <ele>374</ele>
        <time>2022-02-23T20:49:20Z</time>
      </trkpt>
      <trkpt lat="46.0977" lon="3.47963">
        <ele>374.6</ele>
      </trkpt>
      <trkpt lat="46.09746" lon="3.47952">
        <ele>375.8</ele>
        <time>2022-02-23T20:49:30Z</time>
      </trkpt>
      <trkpt lat="46.09728" lon="3.47943">
        <ele>376</ele>
      </trkpt>
      <trkpt lat="46.09709" lon="3.47934">
        <ele>376.7</ele>
        <time>2022-02-23T20:49:39Z</time>
      </trkpt>
      <trkpt lat="46.0968" lon="3.47919">
        <ele>377.5</ele>
      </trkpt>
      <trkpt lat="46.09674" lon="3.47916">
        <ele>377.7</ele>
        <time>2022-02-23T20:49:48Z</time>
      </trkpt>
      <trkpt lat="46.09669" lon="3.47914">
        <ele>377.8</ele>
      </trkpt>
      <trkpt lat="46.09615" lon="3.47911">
        <ele>379</ele>
      </trkpt>
      <trkpt lat="46.09545" lon="3.47909">
        <ele>380.1</ele>
        <time>2022-02-23T20:50:21Z</time>
      </trkpt>
      <trkpt lat="46.09535" lon="3.47914">
        <ele>380.1</ele>
      </trkpt>
      <trkpt lat="46.09523" lon="3.47923">
        <ele>380.1</ele>
      </trkpt>
      <trkpt lat="46.09509" lon="3.4793">
        <ele>380.4</ele>
        <time>2022-02-23T20:50:27Z</time>
      </trkpt>
      <trkpt lat="46.09481" lon="3.47945">
        <ele>380.7</ele>
      </trkpt>
      <trkpt lat="46.09457" lon="3.47964">
        <ele>380</ele>
        <time>2022-02-23T20:50:41Z</time>
      </trkpt>
      <trkpt lat="46.09417" lon="3.48">
        <ele>379</ele>
        <time>2022-02-23T20:50:52Z</time>
      </trkpt>
      <trkpt lat="46.09365" lon="3.4809">
        <ele>376.3</ele>
        <time>2022-02-23T20:51:12Z</time>
      </trkpt>
      <trkpt lat="46.09347" lon="3.48112">
        <ele>375.5</ele>
      </trkpt>
      <trkpt lat="46.09311" lon="3.48144">
        <ele>374.9</ele>
      </trkpt>
      <trkpt lat="46.09294" lon="3.48164">
        <ele>382</ele>
        <time>2022-02-23T20:51:31Z</time>
      </trkpt>
      <trkpt lat="46.09237" lon="3.48265">
        <ele>378.4</ele>
        <time>2022-02-23T20:51:55Z</time>
      </trkpt>
      <trkpt lat="46.09226" lon="3.48278">
        <ele>378.2</ele>
      </trkpt>
      <trkpt lat="46.09199" lon="3.48298">
        <ele>379.4</ele>
      </trkpt>
      <trkpt lat="46.09132" lon="3.48328">
        <ele>389</ele>
        <time>2022-02-23T20:52:19Z</time>
      </trkpt>
      <trkpt lat="46.09108" lon="3.48343">
        <ele>382.6</ele>
      </trkpt>
      <trkpt lat="46.09083" lon="3.48359">
        <ele>382.8</ele>
        <time>2022-02-23T20:52:30Z</time>
      </trkpt>
      <trkpt lat="46.09043" lon="3.48382">
        <ele>384.5</ele>
        <time>2022-02-23T20:52:45Z</time>
      </trkpt>
      <trkpt lat="46.09027" lon="3.48388">
        <ele>384.9</ele>
      </trkpt>
      <trkpt lat="46.09008" lon="3.48394">
        <ele>385.6</ele>
      </trkpt>
      <trkpt lat="46.08973" lon="3.48392">
        <ele>384.4</ele>
        <time>2022-02-23T20:52:59Z</time>
      </trkpt>
      <trkpt lat="46.08968" lon="3.48423">
        <ele>387.6</ele>
      </trkpt>
      <trkpt lat="46.08958" lon="3.48526">
        <ele>395.4</ele>
      </trkpt>
      <trkpt lat="46.0896" lon="3.48568">
        <ele>397.9</ele>
        <time>2022-02-23T20:53:28Z</time>
      </trkpt>
      <trkpt lat="46.08957" lon="3.48589">
        <ele>399.4</ele>
      </trkpt>
      <trkpt lat="46.08947" lon="3.48607">
        <ele>400</ele>
      </trkpt>
      <trkpt lat="46.08933" lon="3.48646">
        <ele>402.4</ele>
      </trkpt>
      <trkpt lat="46.08919" lon="3.48703">
        <ele>404.5</ele>
        <time>2022-02-23T20:53:54Z</time>
      </trkpt>
      <trkpt lat="46.08905" lon="3.48826">
        <ele>408.1</ele>
        <time>2022-02-23T20:54:10Z</time>
      </trkpt>
      <trkpt lat="46.08898" lon="3.48844">
        <ele>407.8</ele>
      </trkpt>
      <trkpt lat="46.08891" lon="3.48899">
        <ele>406.3</ele>
      </trkpt>
      <trkpt lat="46.08876" lon="3.4899">
        <ele>406.3</ele>
      </trkpt>
      <trkpt lat="46.0887" lon="3.49018">
        <ele>408</ele>
      </trkpt>
      <trkpt lat="46.08867" lon="3.4904">
        <ele>409.3</ele>
      </trkpt>
      <trkpt lat="46.08866" lon="3.49071">
        <ele>410.5</ele>
      </trkpt>
      <trkpt lat="46.08862" lon="3.49114">
        <ele>411.2</ele>
      </trkpt>
      <trkpt lat="46.08842" lon="3.492">
        <ele>413.7</ele>
        <time>2022-02-23T20:55:13Z</time>
      </trkpt>
      <trkpt lat="46.08855" lon="3.49239">
        <ele>417.2</ele>
      </trkpt>
      <trkpt lat="46.08857" lon="3.49246">
        <ele>417.5</ele>
        <time>2022-02-23T20:55:20Z</time>
      </trkpt>
      <trkpt lat="46.08862" lon="3.49263">
        <ele>419</ele>
      </trkpt>
      <trkpt lat="46.08871" lon="3.49281">
        <ele>420.8</ele>
      </trkpt>
      <trkpt lat="46.08885" lon="3.49302">
        <ele>422.5</ele>
        <time>2022-02-23T20:55:32Z</time>
      </trkpt>
      <trkpt lat="46.08895" lon="3.49395">
        <ele>427.7</ele>
      </trkpt>
      <trkpt lat="46.08892" lon="3.49445">
        <ele>429.2</ele>
        <time>2022-02-23T20:55:56Z</time>
      </trkpt>
      <trkpt lat="46.08889" lon="3.4952">
        <ele>433.7</ele>
      </trkpt>
      <trkpt lat="46.08881" lon="3.49602">
        <ele>436.9</ele>
        <time>2022-02-23T20:56:19Z</time>
      </trkpt>
      <trkpt lat="46.08882" lon="3.49664">
        <ele>440.3</ele>
        <time>2022-02-23T20:56:32Z</time>
      </trkpt>
      <trkpt lat="46.08879" lon="3.49709">
        <ele>442.2</ele>
      </trkpt>
      <trkpt lat="46.08873" lon="3.49744">
        <ele>443.5</ele>
        <time>2022-02-23T20:56:46Z</time>
      </trkpt>
      <trkpt lat="46.08853" lon="3.49812">
        <ele>446</ele>
        <time>2022-02-23T20:56:56Z</time>
      </trkpt>
      <trkpt lat="46.0884" lon="3.49853">
        <ele>448.5</ele>
      </trkpt>
      <trkpt lat="46.08829" lon="3.49882">
        <ele>450</ele>
        <time>2022-02-23T20:57:09Z</time>
      </trkpt>
      <trkpt lat="46.08806" lon="3.49923">
        <ele>454.4</ele>
      </trkpt>
      <trkpt lat="46.08781" lon="3.49969">
        <ele>457</ele>
        <time>2022-02-23T20:57:27Z</time>
      </trkpt>
      <trkpt lat="46.08772" lon="3.49982">
        <ele>460.3</ele>
      </trkpt>
      <trkpt lat="46.08754" lon="3.5">
        <ele>460</ele>
        <time>2022-02-23T20:57:35Z</time>
      </trkpt>
      <trkpt lat="46.08723" lon="3.50021">
        <ele>466.7</ele>
        <time>2022-02-23T20:57:44Z</time>
      </trkpt>
      <trkpt lat="46.08695" lon="3.50026">
        <ele>468.9</ele>
      </trkpt>
      <trkpt lat="46.08657" lon="3.50033">
        <ele>471.1</ele>
        <time>2022-02-23T20:57:57Z</time>
      </trkpt>
      <trkpt lat="46.08644" lon="3.50034">
        <ele>471.9</ele>
        <time>2022-02-23T20:58:01Z</time>
      </trkpt>
      <trkpt lat="46.08565" lon="3.50076">
        <ele>479.3</ele>
        <time>2022-02-23T20:58:23Z</time>
      </trkpt>
      <trkpt lat="46.08511" lon="3.50126">
        <ele>485.2</ele>
        <time>2022-02-23T20:58:36Z</time>
      </trkpt>
      <trkpt lat="46.08497" lon="3.50133">
        <ele>486.7</ele>
      </trkpt>
      <trkpt lat="46.08491" lon="3.50141">
        <ele>486</ele>
        <time>2022-02-23T20:58:42Z</time>
      </trkpt>
      <trkpt lat="46.08456" lon="3.50208">
        <ele>489.2</ele>
        <time>2022-02-23T20:58:55Z</time>
      </trkpt>
      <trkpt lat="46.08436" lon="3.5026">
        <ele>492.4</ele>
        <time>2022-02-23T20:59:06Z</time>
      </trkpt>
      <trkpt lat="46.08428" lon="3.50289">
        <ele>494.3</ele>
      </trkpt>
      <trkpt lat="46.08423" lon="3.50325">
        <ele>496.1</ele>
      </trkpt>
      <trkpt lat="46.08424" lon="3.50353">
        <ele>496</ele>
        <time>2022-02-23T20:59:20Z</time>
      </trkpt>
      <trkpt lat="46.08429" lon="3.50411">
        <ele>497.5</ele>
        <time>2022-02-23T20:59:30Z</time>
      </trkpt>
      <trkpt lat="46.08436" lon="3.50468">
        <ele>500</ele>
      </trkpt>
      <trkpt lat="46.08443" lon="3.50513">
        <ele>502.6</ele>
        <time>2022-02-23T20:59:49Z</time>
      </trkpt>
      <trkpt lat="46.08452" lon="3.50548">
        <ele>504.9</ele>
      </trkpt>
      <trkpt lat="46.08463" lon="3.50573">
        <ele>506.4</ele>
      </trkpt>
      <trkpt lat="46.08466" lon="3.50587">
        <ele>507.1</ele>
        <time>2022-02-23T21:00:03Z</time>
      </trkpt>
      <trkpt lat="46.085" lon="3.50655">
        <ele>509.6</ele>
      </trkpt>
      <trkpt lat="46.08599" lon="3.5084">
        <ele>507.2</ele>
        <time>2022-02-23T21:00:51Z</time>
      </trkpt>
      <trkpt lat="46.08623" lon="3.50879">
        <ele>505.4</ele>
      </trkpt>
      <trkpt lat="46.08645" lon="3.50917">
        <ele>504.2</ele>
        <time>2022-02-23T21:01:09Z</time>
      </trkpt>
      <trkpt lat="46.08661" lon="3.50947">
        <ele>503.5</ele>
      </trkpt>
      <trkpt lat="46.0868" lon="3.50999">
        <ele>503</ele>
        <time>2022-02-23T21:01:23Z</time>
      </trkpt>
      <trkpt lat="46.08691" lon="3.51057">
        <ele>502.7</ele>
      </trkpt>
      <trkpt lat="46.087" lon="3.51127">
        <ele>502</ele>
      </trkpt>
      <trkpt lat="46.08651" lon="3.51352">
        <ele>502.5</ele>
      </trkpt>
      <trkpt lat="46.08597" lon="3.51485">
        <ele>506.3</ele>
      </trkpt>
      <trkpt lat="46.0825" lon="3.51938">
        <ele>521.2</ele>
      </trkpt>
      <trkpt lat="46.08117" lon="3.5202">
        <ele>523.2</ele>
      </trkpt>
      <trkpt lat="46.08015" lon="3.52007">
        <ele>520.5</ele>
      </trkpt>
      <trkpt lat="46.07808" lon="3.51983">
        <ele>517.4</ele>
      </trkpt>
      <trkpt lat="46.07627" lon="3.51996">
        <ele>501.6</ele>
      </trkpt>
      <trkpt lat="46.07658" lon="3.52099">
        <ele>508.9</ele>
      </trkpt>
      <trkpt lat="46.0771" lon="3.52208">
        <ele>507.2</ele>
      </trkpt>
      <trkpt lat="46.07729" lon="3.52208">
        <ele>508.9</ele>
      </trkpt>
      <trkpt lat="46.0778" lon="3.52249">
        <ele>507.9</ele>
      </trkpt>
      <trkpt lat="46.07782" lon="3.52352">
        <ele>508.5</ele>
      </trkpt>
      <trkpt lat="46.07825" lon="3.52603">
        <ele>497</ele>
      </trkpt>
      <trkpt lat="46.07819" lon="3.52666">
        <ele>492</ele>
        <time>2022-02-23T21:09:13Z</time>
      </trkpt>
      <trkpt lat="46.07799" lon="3.52749">
        <ele>487.8</ele>
        <time>2022-02-23T21:09:27Z</time>
      </trkpt>
      <trkpt lat="46.07821" lon="3.52866">
        <ele>486</ele>
        <time>2022-02-23T21:09:47Z</time>
      </trkpt>
      <trkpt lat="46.0783" lon="3.52902">
        <ele>487.3</ele>
        <time>2022-02-23T21:09:55Z</time>
      </trkpt>
      <trkpt lat="46.0787" lon="3.52975">
        <ele>482</ele>
        <time>2022-02-23T21:10:08Z</time>
      </trkpt>
      <trkpt lat="46.07888" lon="3.53037">
        <ele>484.1</ele>
        <time>2022-02-23T21:10:19Z</time>
      </trkpt>
      <trkpt lat="46.07905" lon="3.53113">
        <ele>481.8</ele>
        <time>2022-02-23T21:10:31Z</time>
      </trkpt>
      <trkpt lat="46.07839" lon="3.53157">
        <ele>478.7</ele>
        <time>2022-02-23T21:10:47Z</time>
      </trkpt>
      <trkpt lat="46.07803" lon="3.53184">
        <ele>476.7</ele>
        <time>2022-02-23T21:10:58Z</time>
      </trkpt>
      <trkpt lat="46.07736" lon="3.53198">
        <ele>470</ele>
        <time>2022-02-23T21:11:13Z</time>
      </trkpt>
      <trkpt lat="46.07698" lon="3.53223">
        <ele>464</ele>
        <time>2022-02-23T21:11:23Z</time>
      </trkpt>
      <trkpt lat="46.07668" lon="3.53257">
        <ele>460</ele>
        <time>2022-02-23T21:11:32Z</time>
      </trkpt>
      <trkpt lat="46.07658" lon="3.53272">
        <ele>461.6</ele>
      </trkpt>
      <trkpt lat="46.07652" lon="3.53284">
        <ele>456</ele>
        <time>2022-02-23T21:11:37Z</time>
      </trkpt>
      <trkpt lat="46.07645" lon="3.53329">
        <ele>453.7</ele>
        <time>2022-02-23T21:11:45Z</time>
      </trkpt>
      <trkpt lat="46.07641" lon="3.5334">
        <ele>451.3</ele>
      </trkpt>
      <trkpt lat="46.07632" lon="3.53347">
        <ele>449.1</ele>
      </trkpt>
      <trkpt lat="46.07615" lon="3.5335">
        <ele>447</ele>
        <time>2022-02-23T21:11:52Z</time>
      </trkpt>
      <trkpt lat="46.07548" lon="3.53356">
        <ele>440.5</ele>
        <time>2022-02-23T21:12:10Z</time>
      </trkpt>
      <trkpt lat="46.07524" lon="3.5335">
        <ele>439.1</ele>
      </trkpt>
      <trkpt lat="46.07502" lon="3.5334">
        <ele>438.3</ele>
        <time>2022-02-23T21:12:20Z</time>
      </trkpt>
      <trkpt lat="46.07477" lon="3.5335">
        <ele>434.5</ele>
        <time>2022-02-23T21:12:25Z</time>
      </trkpt>
      <trkpt lat="46.07469" lon="3.53378">
        <ele>433</ele>
        <time>2022-02-23T21:12:30Z</time>
      </trkpt>
      <trkpt lat="46.0746" lon="3.53427">
        <ele>427.9</ele>
        <time>2022-02-23T21:12:36Z</time>
      </trkpt>
      <trkpt lat="46.07464" lon="3.53447">
        <ele>425.5</ele>
        <time>2022-02-23T21:12:43Z</time>
      </trkpt>
      <trkpt lat="46.07473" lon="3.53471">
        <ele>422</ele>
        <time>2022-02-23T21:12:49Z</time>
      </trkpt>
      <trkpt lat="46.07519" lon="3.53538">
        <ele>413</ele>
        <time>2022-02-23T21:13:04Z</time>
      </trkpt>
      <trkpt lat="46.0756" lon="3.53606">
        <ele>406</ele>
        <time>2022-02-23T21:13:19Z</time>
      </trkpt>
      <trkpt lat="46.0759" lon="3.53681">
        <ele>403</ele>
        <time>2022-02-23T21:13:33Z</time>
      </trkpt>
      <trkpt lat="46.07616" lon="3.53734">
        <ele>398</ele>
        <time>2022-02-23T21:13:44Z</time>
      </trkpt>
      <trkpt lat="46.07642" lon="3.53773">
        <ele>395</ele>
        <time>2022-02-23T21:13:52Z</time>
      </trkpt>
      <trkpt lat="46.07664" lon="3.53798">
        <ele>394</ele>
        <time>2022-02-23T21:13:59Z</time>
      </trkpt>
      <trkpt lat="46.0767" lon="3.53818">
        <ele>394</ele>
        <time>2022-02-23T21:14:02Z</time>
      </trkpt>
      <trkpt lat="46.07673" lon="3.53861">
        <ele>393</ele>
        <time>2022-02-23T21:14:09Z</time>
      </trkpt>
      <trkpt lat="46.0765" lon="3.53877">
        <ele>391</ele>
        <time>2022-02-23T21:14:15Z</time>
      </trkpt>
      <trkpt lat="46.07582" lon="3.53964">
        <ele>373</ele>
        <time>2022-02-23T21:14:37Z</time>
      </trkpt>
      <trkpt lat="46.07572" lon="3.5397">
        <ele>374</ele>
      </trkpt>
      <trkpt lat="46.07564" lon="3.53968">
        <ele>372</ele>
        <time>2022-02-23T21:14:41Z</time>
      </trkpt>
      <trkpt lat="46.07556" lon="3.53963">
        <ele>372.3</ele>
      </trkpt>
      <trkpt lat="46.07548" lon="3.53951">
        <ele>373</ele>
        <time>2022-02-23T21:14:45Z</time>
      </trkpt>
      <trkpt lat="46.07546" lon="3.53952">
        <ele>371</ele>
      </trkpt>
      <trkpt lat="46.07543" lon="3.53946">
        <ele>370.6</ele>
      </trkpt>
      <trkpt lat="46.07535" lon="3.53943">
        <ele>373</ele>
        <time>2022-02-23T21:14:49Z</time>
      </trkpt>
      <trkpt lat="46.07527" lon="3.53952">
        <ele>372</ele>
        <time>2022-02-23T21:14:51Z</time>
      </trkpt>
      <trkpt lat="46.07527" lon="3.53966">
        <ele>371</ele>
        <time>2022-02-23T21:14:53Z</time>
      </trkpt>
      <trkpt lat="46.07537" lon="3.5398">
        <ele>365.7</ele>
      </trkpt>
      <trkpt lat="46.07551" lon="3.53992">
        <ele>364.7</ele>
        <time>2022-02-23T21:15:01Z</time>
      </trkpt>
      <trkpt lat="46.0756" lon="3.53999">
        <ele>364</ele>
      </trkpt>
      <trkpt lat="46.07565" lon="3.54014">
        <ele>361.5</ele>
        <time>2022-02-23T21:15:06Z</time>
      </trkpt>
      <trkpt lat="46.07566" lon="3.54038">
        <ele>356.5</ele>
      </trkpt>
      <trkpt lat="46.0757" lon="3.54059">
        <ele>360</ele>
        <time>2022-02-23T21:15:13Z</time>
      </trkpt>
      <trkpt lat="46.07578" lon="3.5407">
        <ele>352</ele>
      </trkpt>
      <trkpt lat="46.07588" lon="3.54079">
        <ele>350.6</ele>
        <time>2022-02-23T21:15:19Z</time>
      </trkpt>
      <trkpt lat="46.07584" lon="3.54083">
        <ele>350</ele>
      </trkpt>
      <trkpt lat="46.07574" lon="3.54092">
        <ele>348</ele>
        <time>2022-02-23T21:15:23Z</time>
      </trkpt>
      <trkpt lat="46.0756" lon="3.54089">
        <ele>347.4</ele>
      </trkpt>
      <trkpt lat="46.0755" lon="3.54089">
        <ele>347</ele>
        <time>2022-02-23T21:15:28Z</time>
      </trkpt>
      <trkpt lat="46.07536" lon="3.54088">
        <ele>347</ele>
        <time>2022-02-23T21:15:32Z</time>
      </trkpt>
      <trkpt lat="46.07513" lon="3.54116">
        <ele>359</ele>
        <time>2022-02-23T21:15:40Z</time>
      </trkpt>
      <trkpt lat="46.07495" lon="3.54125">
        <ele>347.9</ele>
        <time>2022-02-23T21:15:45Z</time>
      </trkpt>
      <trkpt lat="46.07481" lon="3.5413">
        <ele>348.7</ele>
      </trkpt>
      <trkpt lat="46.07462" lon="3.54155">
        <ele>350.3</ele>
        <time>2022-02-23T21:15:53Z</time>
      </trkpt>
      <trkpt lat="46.07442" lon="3.54185">
        <ele>353.7</ele>
        <time>2022-02-23T21:16:01Z</time>
      </trkpt>
      <trkpt lat="46.07426" lon="3.54222">
        <ele>350.4</ele>
      </trkpt>
      <trkpt lat="46.07413" lon="3.5427">
        <ele>347.3</ele>
        <time>2022-02-23T21:16:16Z</time>
      </trkpt>
      <trkpt lat="46.07401" lon="3.54316">
        <ele>348.4</ele>
        <time>2022-02-23T21:16:25Z</time>
      </trkpt>
      <trkpt lat="46.07389" lon="3.54396">
        <ele>347.7</ele>
        <time>2022-02-23T21:16:37Z</time>
      </trkpt>
      <trkpt lat="46.07369" lon="3.54486">
        <ele>348.3</ele>
        <time>2022-02-23T21:16:52Z</time>
      </trkpt>
      <trkpt lat="46.07344" lon="3.54603">
        <ele>348.6</ele>
        <time>2022-02-23T21:17:11Z</time>
      </trkpt>
      <trkpt lat="46.07342" lon="3.54632">
        <ele>348.7</ele>
        <time>2022-02-23T21:17:18Z</time>
      </trkpt>
      <trkpt lat="46.07347" lon="3.54722">
        <ele>345</ele>
        <time>2022-02-23T21:17:32Z</time>
      </trkpt>
      <trkpt lat="46.07328" lon="3.54791">
        <ele>344.6</ele>
        <time>2022-02-23T21:17:44Z</time>
      </trkpt>
      <trkpt lat="46.0731" lon="3.54862">
        <ele>348.3</ele>
        <time>2022-02-23T21:17:55Z</time>
      </trkpt>
      <trkpt lat="46.07294" lon="3.54926">
        <ele>352.6</ele>
        <time>2022-02-23T21:18:07Z</time>
      </trkpt>
      <trkpt lat="46.0729" lon="3.5497">
        <ele>352.3</ele>
        <time>2022-02-23T21:18:14Z</time>
      </trkpt>
      <trkpt lat="46.07289" lon="3.55015">
        <ele>357</ele>
        <time>2022-02-23T21:18:23Z</time>
      </trkpt>
      <trkpt lat="46.07291" lon="3.5506">
        <ele>352.3</ele>
        <time>2022-02-23T21:18:28Z</time>
      </trkpt>
      <trkpt lat="46.07208" lon="3.55063">
        <ele>364.2</ele>
        <time>2022-02-23T21:18:40Z</time>
      </trkpt>
      <trkpt lat="46.07193" lon="3.55056">
        <ele>366.9</ele>
        <time>2022-02-23T21:18:51Z</time>
      </trkpt>
      <trkpt lat="46.07186" lon="3.55047">
        <ele>368.3</ele>
      </trkpt>
      <trkpt lat="46.07131" lon="3.54972">
        <ele>378.9</ele>
      </trkpt>
      <trkpt lat="46.07075" lon="3.54905">
        <ele>383</ele>
        <time>2022-02-23T21:19:28Z</time>
      </trkpt>
      <trkpt lat="46.07043" lon="3.54873">
        <ele>386</ele>
        <time>2022-02-23T21:19:36Z</time>
      </trkpt>
      <trkpt lat="46.07006" lon="3.54851">
        <ele>389.4</ele>
        <time>2022-02-23T21:19:48Z</time>
      </trkpt>
      <trkpt lat="46.06983" lon="3.5485">
        <ele>393.9</ele>
        <time>2022-02-23T21:19:52Z</time>
      </trkpt>
      <trkpt lat="46.06969" lon="3.5486">
        <ele>396.1</ele>
        <time>2022-02-23T21:19:57Z</time>
      </trkpt>
      <trkpt lat="46.06948" lon="3.54886">
        <ele>400.5</ele>
        <time>2022-02-23T21:20:03Z</time>
      </trkpt>
      <trkpt lat="46.06938" lon="3.549">
        <ele>401.2</ele>
        <time>2022-02-23T21:20:07Z</time>
      </trkpt>
      <trkpt lat="46.06926" lon="3.54921">
        <ele>401.1</ele>
        <time>2022-02-23T21:20:11Z</time>
      </trkpt>
      <trkpt lat="46.06903" lon="3.54909">
        <ele>401</ele>
      </trkpt>
      <trkpt lat="46.06892" lon="3.54903">
        <ele>400.3</ele>
      </trkpt>
      <trkpt lat="46.06878" lon="3.54888">
        <ele>404</ele>
        <time>2022-02-23T21:20:23Z</time>
      </trkpt>
      <trkpt lat="46.06855" lon="3.54887">
        <ele>398</ele>
        <time>2022-02-23T21:20:29Z</time>
      </trkpt>
      <trkpt lat="46.06849" lon="3.54895">
        <ele>397.4</ele>
        <time>2022-02-23T21:20:31Z</time>
      </trkpt>
      <trkpt lat="46.06835" lon="3.54917">
        <ele>395.8</ele>
      </trkpt>
      <trkpt lat="46.06826" lon="3.54935">
        <ele>393.5</ele>
      </trkpt>
      <trkpt lat="46.06821" lon="3.54953">
        <ele>391</ele>
      </trkpt>
      <trkpt lat="46.0681" lon="3.54965">
        <ele>390.7</ele>
        <time>2022-02-23T21:20:46Z</time>
      </trkpt>
      <trkpt lat="46.06805" lon="3.54968">
        <ele>390.8</ele>
      </trkpt>
      <trkpt lat="46.06788" lon="3.54971">
        <ele>388.4</ele>
        <time>2022-02-23T21:20:52Z</time>
      </trkpt>
      <trkpt lat="46.06771" lon="3.54974">
        <ele>385.8</ele>
      </trkpt>
      <trkpt lat="46.0675" lon="3.54968">
        <ele>385.1</ele>
      </trkpt>
      <trkpt lat="46.06744" lon="3.54967">
        <ele>384.5</ele>
      </trkpt>
      <trkpt lat="46.06736" lon="3.54967">
        <ele>382.9</ele>
        <time>2022-02-23T21:21:05Z</time>
      </trkpt>
      <trkpt lat="46.06729" lon="3.54968">
        <ele>381.6</ele>
      </trkpt>
      <trkpt lat="46.06716" lon="3.54968">
        <ele>379.7</ele>
      </trkpt>
      <trkpt lat="46.06701" lon="3.54975">
        <ele>376.6</ele>
        <time>2022-02-23T21:21:13Z</time>
      </trkpt>
      <trkpt lat="46.06692" lon="3.5498">
        <ele>376</ele>
      </trkpt>
      <trkpt lat="46.06682" lon="3.5499">
        <ele>390</ele>
        <time>2022-02-23T21:21:18Z</time>
      </trkpt>
      <trkpt lat="46.06668" lon="3.55003">
        <ele>379</ele>
        <time>2022-02-23T21:21:23Z</time>
      </trkpt>
      <trkpt lat="46.06661" lon="3.55005">
        <ele>380</ele>
      </trkpt>
      <trkpt lat="46.06611" lon="3.55042">
        <ele>397</ele>
        <time>2022-02-23T21:21:36Z</time>
      </trkpt>
      <trkpt lat="46.06592" lon="3.55057">
        <ele>387.9</ele>
      </trkpt>
      <trkpt lat="46.06574" lon="3.55072">
        <ele>389.2</ele>
        <time>2022-02-23T21:21:47Z</time>
      </trkpt>
      <trkpt lat="46.06563" lon="3.55081">
        <ele>390.1</ele>
      </trkpt>
      <trkpt lat="46.06547" lon="3.55104">
        <ele>399</ele>
        <time>2022-02-23T21:21:55Z</time>
      </trkpt>
      <trkpt lat="46.06543" lon="3.55116">
        <ele>394.4</ele>
      </trkpt>
      <trkpt lat="46.0654" lon="3.55142">
        <ele>398</ele>
      </trkpt>
      <trkpt lat="46.06537" lon="3.55168">
        <ele>400.5</ele>
        <time>2022-02-23T21:22:05Z</time>
      </trkpt>
      <trkpt lat="46.06522" lon="3.5521">
        <ele>403.1</ele>
        <time>2022-02-23T21:22:14Z</time>
      </trkpt>
      <trkpt lat="46.06521" lon="3.5523">
        <ele>404.1</ele>
      </trkpt>
      <trkpt lat="46.06523" lon="3.55247">
        <ele>405.2</ele>
        <time>2022-02-23T21:22:19Z</time>
      </trkpt>
      <trkpt lat="46.06529" lon="3.55268">
        <ele>405.8</ele>
      </trkpt>
      <trkpt lat="46.0654" lon="3.55289">
        <ele>405.9</ele>
        <time>2022-02-23T21:22:27Z</time>
      </trkpt>
      <trkpt lat="46.06548" lon="3.55298">
        <ele>406.4</ele>
      </trkpt>
      <trkpt lat="46.06558" lon="3.55305">
        <ele>407.3</ele>
        <time>2022-02-23T21:22:32Z</time>
      </trkpt>
      <trkpt lat="46.06564" lon="3.55322">
        <ele>407.1</ele>
        <time>2022-02-23T21:22:36Z</time>
      </trkpt>
      <trkpt lat="46.06575" lon="3.55357">
        <ele>409</ele>
      </trkpt>
      <trkpt lat="46.0658" lon="3.5537">
        <ele>410.1</ele>
      </trkpt>
      <trkpt lat="46.06597" lon="3.554">
        <ele>412.2</ele>
      </trkpt>
      <trkpt lat="46.06614" lon="3.55425">
        <ele>413.2</ele>
        <time>2022-02-23T21:22:57Z</time>
      </trkpt>
      <trkpt lat="46.06631" lon="3.55453">
        <ele>413.3</ele>
        <time>2022-02-23T21:23:01Z</time>
      </trkpt>
      <trkpt lat="46.06611" lon="3.55473">
        <ele>413</ele>
        <time>2022-02-23T21:23:06Z</time>
      </trkpt>
      <trkpt lat="46.06602" lon="3.55478">
        <ele>413.8</ele>
      </trkpt>
      <trkpt lat="46.06589" lon="3.5548">
        <ele>413.6</ele>
        <time>2022-02-23T21:23:11Z</time>
      </trkpt>
      <trkpt lat="46.06569" lon="3.55487">
        <ele>414.6</ele>
      </trkpt>
      <trkpt lat="46.06554" lon="3.55497">
        <ele>415.7</ele>
        <time>2022-02-23T21:23:20Z</time>
      </trkpt>
      <trkpt lat="46.06541" lon="3.55508">
        <ele>415.7</ele>
      </trkpt>
      <trkpt lat="46.06521" lon="3.55518">
        <ele>415</ele>
        <time>2022-02-23T21:23:29Z</time>
      </trkpt>
      <trkpt lat="46.06499" lon="3.55531">
        <ele>417.4</ele>
      </trkpt>
      <trkpt lat="46.06473" lon="3.55539">
        <ele>418</ele>
        <time>2022-02-23T21:23:40Z</time>
      </trkpt>
      <trkpt lat="46.06465" lon="3.55543">
        <ele>418.9</ele>
      </trkpt>
      <trkpt lat="46.06453" lon="3.55543">
        <ele>419.1</ele>
      </trkpt>
      <trkpt lat="46.06413" lon="3.55545">
        <ele>421.6</ele>
      </trkpt>
      <trkpt lat="46.06385" lon="3.55545">
        <ele>422.4</ele>
        <time>2022-02-23T21:24:01Z</time>
      </trkpt>
      <trkpt lat="46.06354" lon="3.55565">
        <ele>423.5</ele>
        <time>2022-02-23T21:24:08Z</time>
      </trkpt>
      <trkpt lat="46.06357" lon="3.55578">
        <ele>423.2</ele>
        <time>2022-02-23T21:24:12Z</time>
      </trkpt>
      <trkpt lat="46.06384" lon="3.55639">
        <ele>421</ele>
        <time>2022-02-23T21:24:24Z</time>
      </trkpt>
      <trkpt lat="46.064" lon="3.55708">
        <ele>422.6</ele>
      </trkpt>
      <trkpt lat="46.06412" lon="3.5574">
        <ele>424.1</ele>
      </trkpt>
      <trkpt lat="46.0642" lon="3.5578">
        <ele>422.2</ele>
        <time>2022-02-23T21:24:48Z</time>
      </trkpt>
      <trkpt lat="46.06428" lon="3.55819">
        <ele>419.2</ele>
        <time>2022-02-23T21:24:54Z</time>
      </trkpt>
      <trkpt lat="46.06461" lon="3.55869">
        <ele>410.2</ele>
        <time>2022-02-23T21:25:04Z</time>
      </trkpt>
      <trkpt lat="46.06478" lon="3.55885">
        <ele>405.5</ele>
        <time>2022-02-23T21:25:10Z</time>
      </trkpt>
      <trkpt lat="46.06499" lon="3.55899">
        <ele>400.2</ele>
        <time>2022-02-23T21:25:18Z</time>
      </trkpt>
      <trkpt lat="46.0652" lon="3.55925">
        <ele>394.6</ele>
      </trkpt>
      <trkpt lat="46.06527" lon="3.55941">
        <ele>391.6</ele>
        <time>2022-02-23T21:25:24Z</time>
      </trkpt>
      <trkpt lat="46.06535" lon="3.55958">
        <ele>388.5</ele>
        <time>2022-02-23T21:25:29Z</time>
      </trkpt>
      <trkpt lat="46.06548" lon="3.55967">
        <ele>386.9</ele>
      </trkpt>
      <trkpt lat="46.06564" lon="3.55973">
        <ele>384.8</ele>
        <time>2022-02-23T21:25:34Z</time>
      </trkpt>
      <trkpt lat="46.06587" lon="3.55979">
        <ele>381.3</ele>
      </trkpt>
      <trkpt lat="46.06597" lon="3.55977">
        <ele>379.6</ele>
      </trkpt>
      <trkpt lat="46.06614" lon="3.55988">
        <ele>375.6</ele>
        <time>2022-02-23T21:25:47Z</time>
      </trkpt>
      <trkpt lat="46.06619" lon="3.56023">
        <ele>374.5</ele>
        <time>2022-02-23T21:25:54Z</time>
      </trkpt>
      <trkpt lat="46.06609" lon="3.56059">
        <ele>367.8</ele>
      </trkpt>
      <trkpt lat="46.066" lon="3.56064">
        <ele>365.6</ele>
        <time>2022-02-23T21:26:01Z</time>
      </trkpt>
      <trkpt lat="46.06588" lon="3.5606">
        <ele>365.4</ele>
      </trkpt>
      <trkpt lat="46.06578" lon="3.56053">
        <ele>365.8</ele>
      </trkpt>
      <trkpt lat="46.06553" lon="3.56061">
        <ele>362.2</ele>
      </trkpt>
      <trkpt lat="46.06541" lon="3.56076">
        <ele>360.4</ele>
      </trkpt>
      <trkpt lat="46.06538" lon="3.561">
        <ele>361.1</ele>
      </trkpt>
      <trkpt lat="46.06546" lon="3.56111">
        <ele>359.8</ele>
      </trkpt>
      <trkpt lat="46.06513" lon="3.56106">
        <ele>368.2</ele>
      </trkpt>
      <trkpt lat="46.06484" lon="3.56108">
        <ele>375.7</ele>
      </trkpt>
      <trkpt lat="46.06447" lon="3.56129">
        <ele>382.8</ele>
      </trkpt>
      <trkpt lat="46.06352" lon="3.56146">
        <ele>398.9</ele>
      </trkpt>
      <trkpt lat="46.06286" lon="3.56156">
        <ele>405.7</ele>
      </trkpt>
      <trkpt lat="46.0623" lon="3.56144">
        <ele>413.8</ele>
      </trkpt>
      <trkpt lat="46.06192" lon="3.56133">
        <ele>421</ele>
      </trkpt>
      <trkpt lat="46.06167" lon="3.56134">
        <ele>425.5</ele>
      </trkpt>
      <trkpt lat="46.06129" lon="3.56158">
        <ele>426.4</ele>
      </trkpt>
      <trkpt lat="46.06044" lon="3.56098">
        <ele>442.3</ele>
      </trkpt>
      <trkpt lat="46.05942" lon="3.5605">
        <ele>454.3</ele>
      </trkpt>
      <trkpt lat="46.05905" lon="3.56053">
        <ele>458.7</ele>
      </trkpt>
      <trkpt lat="46.05834" lon="3.56085">
        <ele>461</ele>
      </trkpt>
      <trkpt lat="46.05778" lon="3.56069">
        <ele>467</ele>
      </trkpt>
      <trkpt lat="46.05753" lon="3.56049">
        <ele>471.7</ele>
      </trkpt>
      <trkpt lat="46.05717" lon="3.56004">
        <ele>478.3</ele>
      </trkpt>
      <trkpt lat="46.05677" lon="3.55989">
        <ele>478.5</ele>
      </trkpt>
      <trkpt lat="46.05529" lon="3.55888">
        <ele>499.9</ele>
      </trkpt>
      <trkpt lat="46.05504" lon="3.55848">
        <ele>504.2</ele>
      </trkpt>
      <trkpt lat="46.05497" lon="3.55817">
        <ele>505.8</ele>
      </trkpt>
      <trkpt lat="46.05493" lon="3.55798">
        <ele>506.6</ele>
      </trkpt>
      <trkpt lat="46.05473" lon="3.55773">
        <ele>509.5</ele>
      </trkpt>
      <trkpt lat="46.05383" lon="3.55743">
        <ele>521</ele>
      </trkpt>
      <trkpt lat="46.05288" lon="3.55688">
        <ele>525.3</ele>
      </trkpt>
      <trkpt lat="46.05228" lon="3.55667">
        <ele>528.1</ele>
      </trkpt>
      <trkpt lat="46.05185" lon="3.55677">
        <ele>528.8</ele>
      </trkpt>
      <trkpt lat="46.05144" lon="3.55694">
        <ele>529</ele>
      </trkpt>
      <trkpt lat="46.05091" lon="3.5573">
        <ele>533</ele>
      </trkpt>
      <trkpt lat="46.05107" lon="3.55792">
        <ele>529.3</ele>
      </trkpt>
      <trkpt lat="46.05128" lon="3.55877">
        <ele>522.2</ele>
      </trkpt>
      <trkpt lat="46.05153" lon="3.55928">
        <ele>517.4</ele>
      </trkpt>
      <trkpt lat="46.05159" lon="3.56006">
        <ele>515.2</ele>
      </trkpt>
      <trkpt lat="46.05149" lon="3.56016">
        <ele>515.2</ele>
      </trkpt>
      <trkpt lat="46.05067" lon="3.56016">
        <ele>509.7</ele>
      </trkpt>
      <trkpt lat="46.05038" lon="3.56034">
        <ele>508.3</ele>
      </trkpt>
      <trkpt lat="46.05021" lon="3.56073">
        <ele>505.8</ele>
      </trkpt>
      <trkpt lat="46.05015" lon="3.56123">
        <ele>501.5</ele>
      </trkpt>
      <trkpt lat="46.05046" lon="3.56237">
        <ele>498.2</ele>
      </trkpt>
      <trkpt lat="46.05048" lon="3.56266">
        <ele>495.6</ele>
      </trkpt>
      <trkpt lat="46.05046" lon="3.56285">
        <ele>493.7</ele>
      </trkpt>
      <trkpt lat="46.05006" lon="3.56358">
        <ele>485.6</ele>
      </trkpt>
      <trkpt lat="46.05003" lon="3.5638">
        <ele>483.2</ele>
      </trkpt>
      <trkpt lat="46.05003" lon="3.56435">
        <ele>477.3</ele>
      </trkpt>
      <trkpt lat="46.05012" lon="3.56451">
        <ele>476.1</ele>
      </trkpt>
      <trkpt lat="46.05029" lon="3.56549">
        <ele>468.2</ele>
      </trkpt>
      <trkpt lat="46.04767" lon="3.56627">
        <ele>431.9</ele>
      </trkpt>
      <trkpt lat="46.0478" lon="3.56858">
        <ele>448.5</ele>
      </trkpt>
      <trkpt lat="46.04674" lon="3.56974">
        <ele>452</ele>
      </trkpt>
      <trkpt lat="46.04622" lon="3.56966">
        <ele>449.5</ele>
      </trkpt>
      <trkpt lat="46.04594" lon="3.56981">
        <ele>448.6</ele>
      </trkpt>
      <trkpt lat="46.04545" lon="3.57066">
        <ele>453.1</ele>
      </trkpt>
      <trkpt lat="46.04478" lon="3.57086">
        <ele>451</ele>
      </trkpt>
      <trkpt lat="46.04423" lon="3.57148">
        <ele>452.3</ele>
      </trkpt>
      <trkpt lat="46.04387" lon="3.57227">
        <ele>449.7</ele>
      </trkpt>
      <trkpt lat="46.04347" lon="3.5724">
        <ele>446.7</ele>
      </trkpt>
      <trkpt lat="46.04297" lon="3.57202">
        <ele>437.6</ele>
      </trkpt>
      <trkpt lat="46.04205" lon="3.57281">
        <ele>433.2</ele>
      </trkpt>
      <trkpt lat="46.0418" lon="3.57343">
        <ele>440.8</ele>
      </trkpt>
      <trkpt lat="46.04149" lon="3.57401">
        <ele>450.2</ele>
      </trkpt>
      <trkpt lat="46.04092" lon="3.57455">
        <ele>460.3</ele>
      </trkpt>
      <trkpt lat="46.03964" lon="3.57515">
        <ele>480.8</ele>
      </trkpt>
      <trkpt lat="46.03932" lon="3.57515">
        <ele>486.9</ele>
      </trkpt>
      <trkpt lat="46.03886" lon="3.57472">
        <ele>496.4</ele>
      </trkpt>
      <trkpt lat="46.03785" lon="3.57517">
        <ele>514.4</ele>
      </trkpt>
      <trkpt lat="46.03752" lon="3.57511">
        <ele>520.7</ele>
      </trkpt>
      <trkpt lat="46.03694" lon="3.57547">
        <ele>525.4</ele>
      </trkpt>
      <trkpt lat="46.03596" lon="3.57596">
        <ele>534.9</ele>
      </trkpt>
      <trkpt lat="46.03353" lon="3.57581">
        <ele>555.9</ele>
      </trkpt>
      <trkpt lat="46.03039" lon="3.57558">
        <ele>570.2</ele>
      </trkpt>
      <trkpt lat="46.03013" lon="3.57556">
        <ele>572</ele>
      </trkpt>
      <trkpt lat="46.03006" lon="3.57603">
        <ele>571.3</ele>
      </trkpt>
      <trkpt lat="46.02978" lon="3.57654">
        <ele>572.3</ele>
      </trkpt>
      <trkpt lat="46.0296" lon="3.57649">
        <ele>572.8</ele>
      </trkpt>
      <trkpt lat="46.0293" lon="3.57633">
        <ele>574</ele>
      </trkpt>
      <trkpt lat="46.02795" lon="3.57655">
        <ele>576.5</ele>
      </trkpt>
      <trkpt lat="46.02784" lon="3.57547">
        <ele>575.4</ele>
      </trkpt>
      <trkpt lat="46.02726" lon="3.57654">
        <ele>572.9</ele>
      </trkpt>
      <trkpt lat="46.0269" lon="3.57682">
        <ele>573.1</ele>
      </trkpt>
      <trkpt lat="46.02665" lon="3.57764">
        <ele>573.9</ele>
      </trkpt>
      <trkpt lat="46.02669" lon="3.57822">
        <ele>571.5</ele>
      </trkpt>
      <trkpt lat="46.02667" lon="3.57897">
        <ele>566.3</ele>
      </trkpt>
      <trkpt lat="46.02626" lon="3.58026">
        <ele>560.7</ele>
      </trkpt>
      <trkpt lat="46.02689" lon="3.5815">
        <ele>551.4</ele>
      </trkpt>
      <trkpt lat="46.02754" lon="3.58317">
        <ele>538.1</ele>
      </trkpt>
      <trkpt lat="46.02789" lon="3.58362">
        <ele>533.6</ele>
      </trkpt>
      <trkpt lat="46.02812" lon="3.58397">
        <ele>530.9</ele>
      </trkpt>
      <trkpt lat="46.02824" lon="3.58438">
        <ele>530.2</ele>
      </trkpt>
      <trkpt lat="46.02778" lon="3.58594">
        <ele>517.2</ele>
      </trkpt>
      <trkpt lat="46.02957" lon="3.58802">
        <ele>489.4</ele>
      </trkpt>
      <trkpt lat="46.03048" lon="3.58858">
        <ele>473.7</ele>
      </trkpt>
      <trkpt lat="46.03069" lon="3.58852">
        <ele>470</ele>
      </trkpt>
      <trkpt lat="46.03125" lon="3.58895">
        <ele>459.8</ele>
      </trkpt>
      <trkpt lat="46.03168" lon="3.5897">
        <ele>452.8</ele>
      </trkpt>
      <trkpt lat="46.03194" lon="3.59079">
        <ele>441.4</ele>
      </trkpt>
      <trkpt lat="46.03168" lon="3.5912">
        <ele>435.8</ele>
      </trkpt>
      <trkpt lat="46.03097" lon="3.59131">
        <ele>427.6</ele>
      </trkpt>
      <trkpt lat="46.03028" lon="3.59176">
        <ele>416.7</ele>
      </trkpt>
      <trkpt lat="46.02993" lon="3.59247">
        <ele>408.3</ele>
      </trkpt>
      <trkpt lat="46.0299" lon="3.59324">
        <ele>409.4</ele>
      </trkpt>
      <trkpt lat="46.03055" lon="3.59373">
        <ele>411.9</ele>
      </trkpt>
      <trkpt lat="46.03155" lon="3.59311">
        <ele>407.7</ele>
      </trkpt>
      <trkpt lat="46.03213" lon="3.59315">
        <ele>409</ele>
      </trkpt>
      <trkpt lat="46.03305" lon="3.59298">
        <ele>410.4</ele>
      </trkpt>
      <trkpt lat="46.03466" lon="3.59161">
        <ele>404.1</ele>
      </trkpt>
      <trkpt lat="46.03632" lon="3.59019">
        <ele>404.2</ele>
      </trkpt>
      <trkpt lat="46.03667" lon="3.58974">
        <ele>402.3</ele>
      </trkpt>
      <trkpt lat="46.03758" lon="3.58798">
        <ele>402.6</ele>
      </trkpt>
      <trkpt lat="46.03812" lon="3.58712">
        <ele>399.4</ele>
      </trkpt>
      <trkpt lat="46.03851" lon="3.58682">
        <ele>401.1</ele>
      </trkpt>
      <trkpt lat="46.0391" lon="3.5865">
        <ele>407.6</ele>
      </trkpt>
      <trkpt lat="46.03955" lon="3.58609">
        <ele>409.4</ele>
      </trkpt>
      <trkpt lat="46.03983" lon="3.58626">
        <ele>413.9</ele>
      </trkpt>
      <trkpt lat="46.03976" lon="3.58573">
        <ele>408.8</ele>
      </trkpt>
      <trkpt lat="46.03937" lon="3.58517">
        <ele>410</ele>
      </trkpt>
      <trkpt lat="46.0394" lon="3.58472">
        <ele>409.2</ele>
      </trkpt>
      <trkpt lat="46.03931" lon="3.5842">
        <ele>408.6</ele>
      </trkpt>
      <trkpt lat="46.03967" lon="3.58365">
        <ele>418.1</ele>
      </trkpt>
      <trkpt lat="46.03991" lon="3.5821">
        <ele>434.7</ele>
      </trkpt>
      <trkpt lat="46.04006" lon="3.58152">
        <ele>442.1</ele>
      </trkpt>
      <trkpt lat="46.04047" lon="3.58122">
        <ele>449.1</ele>
      </trkpt>
      <trkpt lat="46.04099" lon="3.58204">
        <ele>470.5</ele>
      </trkpt>
      <trkpt lat="46.04149" lon="3.58242">
        <ele>479.8</ele>
      </trkpt>
      <trkpt lat="46.04278" lon="3.58249">
        <ele>491.9</ele>
      </trkpt>
      <trkpt lat="46.04323" lon="3.58287">
        <ele>496.6</ele>
        <time>2022-02-23T21:38:35Z</time>
      </trkpt>
      <trkpt lat="46.04355" lon="3.58318">
        <ele>495</ele>
        <time>2022-02-23T21:38:42Z</time>
      </trkpt>
      <trkpt lat="46.04357" lon="3.58361">
        <ele>493</ele>
        <time>2022-02-23T21:38:49Z</time>
      </trkpt>
      <trkpt lat="46.04382" lon="3.58412">
        <ele>494</ele>
        <time>2022-02-23T21:38:59Z</time>
      </trkpt>
      <trkpt lat="46.04386" lon="3.58444">
        <ele>493</ele>
        <time>2022-02-23T21:39:04Z</time>
      </trkpt>
      <trkpt lat="46.04382" lon="3.58469">
        <ele>490</ele>
        <time>2022-02-23T21:39:08Z</time>
      </trkpt>
      <trkpt lat="46.04367" lon="3.58502">
        <ele>486</ele>
        <time>2022-02-23T21:39:15Z</time>
      </trkpt>
      <trkpt lat="46.04369" lon="3.58529">
        <ele>484</ele>
        <time>2022-02-23T21:39:19Z</time>
      </trkpt>
      <trkpt lat="46.04383" lon="3.58559">
        <ele>482</ele>
        <time>2022-02-23T21:39:25Z</time>
      </trkpt>
      <trkpt lat="46.0441" lon="3.58588">
        <ele>482</ele>
        <time>2022-02-23T21:39:33Z</time>
      </trkpt>
      <trkpt lat="46.04469" lon="3.58614">
        <ele>481</ele>
        <time>2022-02-23T21:39:47Z</time>
      </trkpt>
      <trkpt lat="46.04493" lon="3.58633">
        <ele>480</ele>
        <time>2022-02-23T21:39:54Z</time>
      </trkpt>
      <trkpt lat="46.04466" lon="3.58684">
        <ele>477</ele>
        <time>2022-02-23T21:40:04Z</time>
      </trkpt>
      <trkpt lat="46.04436" lon="3.5875">
        <ele>480</ele>
        <time>2022-02-23T21:40:17Z</time>
      </trkpt>
      <trkpt lat="46.04431" lon="3.58766">
        <ele>482.3</ele>
      </trkpt>
      <trkpt lat="46.04434" lon="3.58772">
        <ele>481</ele>
        <time>2022-02-23T21:40:20Z</time>
      </trkpt>
      <trkpt lat="46.04445" lon="3.58784">
        <ele>484.1</ele>
        <time>2022-02-23T21:40:23Z</time>
      </trkpt>
      <trkpt lat="46.04452" lon="3.58789">
        <ele>485.5</ele>
        <time>2022-02-23T21:40:26Z</time>
      </trkpt>
      <trkpt lat="46.04454" lon="3.58791">
        <ele>485.9</ele>
      </trkpt>
      <trkpt lat="46.04498" lon="3.58889">
        <ele>494</ele>
        <time>2022-02-23T21:40:45Z</time>
      </trkpt>
      <trkpt lat="46.04521" lon="3.58923">
        <ele>498.4</ele>
        <time>2022-02-23T21:40:53Z</time>
      </trkpt>
      <trkpt lat="46.04567" lon="3.58966">
        <ele>501.2</ele>
        <time>2022-02-23T21:41:06Z</time>
      </trkpt>
      <trkpt lat="46.04618" lon="3.59021">
        <ele>503.6</ele>
        <time>2022-02-23T21:41:21Z</time>
      </trkpt>
      <trkpt lat="46.04657" lon="3.59062">
        <ele>503</ele>
        <time>2022-02-23T21:41:31Z</time>
      </trkpt>
      <trkpt lat="46.04674" lon="3.59092">
        <ele>503.6</ele>
        <time>2022-02-23T21:41:38Z</time>
      </trkpt>
      <trkpt lat="46.0469" lon="3.59122">
        <ele>500.4</ele>
        <time>2022-02-23T21:41:44Z</time>
      </trkpt>
      <trkpt lat="46.04738" lon="3.59184">
        <ele>499.9</ele>
        <time>2022-02-23T21:41:59Z</time>
      </trkpt>
      <trkpt lat="46.04753" lon="3.59204">
        <ele>498.6</ele>
      </trkpt>
      <trkpt lat="46.04755" lon="3.59216">
        <ele>503</ele>
        <time>2022-02-23T21:42:06Z</time>
      </trkpt>
      <trkpt lat="46.04753" lon="3.59256">
        <ele>502</ele>
        <time>2022-02-23T21:42:12Z</time>
      </trkpt>
      <trkpt lat="46.04755" lon="3.59331">
        <ele>499</ele>
        <time>2022-02-23T21:42:24Z</time>
      </trkpt>
      <trkpt lat="46.04776" lon="3.59435">
        <ele>484</ele>
        <time>2022-02-23T21:42:42Z</time>
      </trkpt>
      <trkpt lat="46.04809" lon="3.5948">
        <ele>474</ele>
        <time>2022-02-23T21:42:52Z</time>
      </trkpt>
      <trkpt lat="46.04817" lon="3.59513">
        <ele>472</ele>
        <time>2022-02-23T21:42:58Z</time>
      </trkpt>
      <trkpt lat="46.04812" lon="3.59559">
        <ele>471</ele>
        <time>2022-02-23T21:43:06Z</time>
      </trkpt>
      <trkpt lat="46.04777" lon="3.59674">
        <ele>463</ele>
        <time>2022-02-23T21:43:26Z</time>
      </trkpt>
      <trkpt lat="46.04796" lon="3.5972">
        <ele>448</ele>
        <time>2022-02-23T21:43:35Z</time>
      </trkpt>
      <trkpt lat="46.04834" lon="3.59722">
        <ele>439</ele>
        <time>2022-02-23T21:43:43Z</time>
      </trkpt>
      <trkpt lat="46.04905" lon="3.5964">
        <ele>433</ele>
        <time>2022-02-23T21:44:05Z</time>
      </trkpt>
      <trkpt lat="46.04917" lon="3.59641">
        <ele>417.9</ele>
        <time>2022-02-23T21:44:08Z</time>
      </trkpt>
      <trkpt lat="46.04923" lon="3.59663">
        <ele>417.1</ele>
      </trkpt>
      <trkpt lat="46.0493" lon="3.59676">
        <ele>427</ele>
        <time>2022-02-23T21:44:14Z</time>
      </trkpt>
      <trkpt lat="46.04954" lon="3.59709">
        <ele>411.2</ele>
      </trkpt>
      <trkpt lat="46.04968" lon="3.59718">
        <ele>413.1</ele>
        <time>2022-02-23T21:44:26Z</time>
      </trkpt>
      <trkpt lat="46.04997" lon="3.5973">
        <ele>414.8</ele>
      </trkpt>
      <trkpt lat="46.05006" lon="3.59732">
        <ele>415</ele>
      </trkpt>
      <trkpt lat="46.05015" lon="3.59729">
        <ele>416.3</ele>
      </trkpt>
      <trkpt lat="46.0502" lon="3.59725">
        <ele>417.1</ele>
        <time>2022-02-23T21:44:38Z</time>
      </trkpt>
      <trkpt lat="46.05025" lon="3.59703">
        <ele>418.2</ele>
      </trkpt>
      <trkpt lat="46.05026" lon="3.59683">
        <ele>419.3</ele>
      </trkpt>
      <trkpt lat="46.05023" lon="3.59665">
        <ele>419.8</ele>
        <time>2022-02-23T21:44:48Z</time>
      </trkpt>
      <trkpt lat="46.05024" lon="3.59661">
        <ele>420.4</ele>
      </trkpt>
      <trkpt lat="46.05035" lon="3.59661">
        <ele>437</ele>
        <time>2022-02-23T21:44:50Z</time>
      </trkpt>
      <trkpt lat="46.05027" lon="3.59622">
        <ele>425.6</ele>
        <time>2022-02-23T21:44:58Z</time>
      </trkpt>
      <trkpt lat="46.05028" lon="3.59602">
        <ele>426.4</ele>
      </trkpt>
      <trkpt lat="46.0503" lon="3.59597">
        <ele>426.9</ele>
      </trkpt>
      <trkpt lat="46.0504" lon="3.59587">
        <ele>429.6</ele>
        <time>2022-02-23T21:45:03Z</time>
      </trkpt>
      <trkpt lat="46.05065" lon="3.59561">
        <ele>435</ele>
        <time>2022-02-23T21:45:11Z</time>
      </trkpt>
      <trkpt lat="46.0508" lon="3.59546">
        <ele>436.7</ele>
      </trkpt>
      <trkpt lat="46.05106" lon="3.59527">
        <ele>439.3</ele>
      </trkpt>
      <trkpt lat="46.05144" lon="3.59503">
        <ele>445.2</ele>
      </trkpt>
      <trkpt lat="46.05159" lon="3.595">
        <ele>448.2</ele>
        <time>2022-02-23T21:45:38Z</time>
      </trkpt>
      <trkpt lat="46.05175" lon="3.59503">
        <ele>450.9</ele>
      </trkpt>
      <trkpt lat="46.05207" lon="3.59546">
        <ele>461.6</ele>
        <time>2022-02-23T21:45:52Z</time>
      </trkpt>
      <trkpt lat="46.05259" lon="3.59571">
        <ele>466.5</ele>
      </trkpt>
      <trkpt lat="46.05342" lon="3.59607">
        <ele>477.3</ele>
      </trkpt>
      <trkpt lat="46.05385" lon="3.59625">
        <ele>479.8</ele>
      </trkpt>
      <trkpt lat="46.05444" lon="3.59652">
        <ele>485.4</ele>
        <time>2022-02-23T21:46:45Z</time>
      </trkpt>
      <trkpt lat="46.05469" lon="3.59652">
        <ele>487.7</ele>
        <time>2022-02-23T21:46:53Z</time>
      </trkpt>
      <trkpt lat="46.05556" lon="3.59648">
        <ele>498</ele>
        <time>2022-02-23T21:47:14Z</time>
      </trkpt>
      <trkpt lat="46.05584" lon="3.59659">
        <ele>500.1</ele>
        <time>2022-02-23T21:47:20Z</time>
      </trkpt>
      <trkpt lat="46.05593" lon="3.59662">
        <ele>500.9</ele>
      </trkpt>
      <trkpt lat="46.05651" lon="3.59653">
        <ele>505.4</ele>
      </trkpt>
      <trkpt lat="46.05671" lon="3.59651">
        <ele>506.6</ele>
      </trkpt>
      <trkpt lat="46.05688" lon="3.59645">
        <ele>507</ele>
        <time>2022-02-23T21:47:45Z</time>
      </trkpt>
      <trkpt lat="46.0571" lon="3.59637">
        <ele>508.1</ele>
      </trkpt>
      <trkpt lat="46.05773" lon="3.59625">
        <ele>513.6</ele>
        <time>2022-02-23T21:48:04Z</time>
      </trkpt>
      <trkpt lat="46.05789" lon="3.5963">
        <ele>515.1</ele>
        <time>2022-02-23T21:48:06Z</time>
      </trkpt>
      <trkpt lat="46.05814" lon="3.59644">
        <ele>517.5</ele>
      </trkpt>
      <trkpt lat="46.0583" lon="3.59645">
        <ele>518.3</ele>
      </trkpt>
      <trkpt lat="46.05839" lon="3.59642">
        <ele>518</ele>
        <time>2022-02-23T21:48:21Z</time>
      </trkpt>
      <trkpt lat="46.05862" lon="3.59631">
        <ele>519.8</ele>
        <time>2022-02-23T21:48:27Z</time>
      </trkpt>
      <trkpt lat="46.05889" lon="3.59616">
        <ele>522.2</ele>
        <time>2022-02-23T21:48:34Z</time>
      </trkpt>
      <trkpt lat="46.05897" lon="3.59613">
        <ele>522.7</ele>
      </trkpt>
      <trkpt lat="46.05915" lon="3.596">
        <ele>523.5</ele>
        <time>2022-02-23T21:48:41Z</time>
      </trkpt>
      <trkpt lat="46.0592" lon="3.596">
        <ele>523.7</ele>
      </trkpt>
      <trkpt lat="46.0593" lon="3.59614">
        <ele>524.6</ele>
      </trkpt>
      <trkpt lat="46.05935" lon="3.59626">
        <ele>525.2</ele>
        <time>2022-02-23T21:48:45Z</time>
      </trkpt>
      <trkpt lat="46.0595" lon="3.59657">
        <ele>527.1</ele>
        <time>2022-02-23T21:48:56Z</time>
      </trkpt>
      <trkpt lat="46.05981" lon="3.59701">
        <ele>530.8</ele>
        <time>2022-02-23T21:49:06Z</time>
      </trkpt>
      <trkpt lat="46.06018" lon="3.59736">
        <ele>534.1</ele>
      </trkpt>
      <trkpt lat="46.06041" lon="3.59755">
        <ele>535.9</ele>
      </trkpt>
      <trkpt lat="46.06068" lon="3.59772">
        <ele>535</ele>
        <time>2022-02-23T21:49:29Z</time>
      </trkpt>
      <trkpt lat="46.0614" lon="3.59812">
        <ele>539.1</ele>
        <time>2022-02-23T21:49:48Z</time>
      </trkpt>
      <trkpt lat="46.06193" lon="3.59853">
        <ele>541</ele>
        <time>2022-02-23T21:50:02Z</time>
      </trkpt>
      <trkpt lat="46.0621" lon="3.59862">
        <ele>541</ele>
      </trkpt>
      <trkpt lat="46.06242" lon="3.59867">
        <ele>542.1</ele>
        <time>2022-02-23T21:50:13Z</time>
      </trkpt>
      <trkpt lat="46.06349" lon="3.59903">
        <ele>543.4</ele>
      </trkpt>
      <trkpt lat="46.06358" lon="3.59907">
        <ele>543.5</ele>
        <time>2022-02-23T21:50:41Z</time>
      </trkpt>
      <trkpt lat="46.06351" lon="3.59968">
        <ele>544</ele>
        <time>2022-02-23T21:50:52Z</time>
      </trkpt>
      <trkpt lat="46.06353" lon="3.60048">
        <ele>549.7</ele>
        <time>2022-02-23T21:51:05Z</time>
      </trkpt>
      <trkpt lat="46.06357" lon="3.60077">
        <ele>546</ele>
        <time>2022-02-23T21:51:09Z</time>
      </trkpt>
      <trkpt lat="46.06386" lon="3.6031">
        <ele>558.1</ele>
        <time>2022-02-23T21:51:49Z</time>
      </trkpt>
      <trkpt lat="46.06426" lon="3.60286">
        <ele>558.1</ele>
      </trkpt>
      <trkpt lat="46.06455" lon="3.60268">
        <ele>557.7</ele>
      </trkpt>
      <trkpt lat="46.06491" lon="3.60242">
        <ele>557.6</ele>
        <time>2022-02-23T21:52:17Z</time>
      </trkpt>
      <trkpt lat="46.06536" lon="3.60203">
        <ele>558.5</ele>
      </trkpt>
      <trkpt lat="46.06553" lon="3.60183">
        <ele>557.2</ele>
        <time>2022-02-23T21:52:34Z</time>
      </trkpt>
      <trkpt lat="46.0659" lon="3.6014">
        <ele>554.3</ele>
      </trkpt>
      <trkpt lat="46.06625" lon="3.60095">
        <ele>551.9</ele>
        <time>2022-02-23T21:52:56Z</time>
      </trkpt>
      <trkpt lat="46.0666" lon="3.60048">
        <ele>547.2</ele>
      </trkpt>
      <trkpt lat="46.06695" lon="3.6">
        <ele>540.9</ele>
        <time>2022-02-23T21:53:19Z</time>
      </trkpt>
      <trkpt lat="46.06745" lon="3.59926">
        <ele>541</ele>
        <time>2022-02-23T21:53:35Z</time>
      </trkpt>
      <trkpt lat="46.06775" lon="3.59884">
        <ele>532</ele>
        <time>2022-02-23T21:53:45Z</time>
      </trkpt>
      <trkpt lat="46.06796" lon="3.59846">
        <ele>523.2</ele>
      </trkpt>
      <trkpt lat="46.06815" lon="3.5981">
        <ele>519.9</ele>
        <time>2022-02-23T21:54:00Z</time>
      </trkpt>
      <trkpt lat="46.06851" lon="3.59744">
        <ele>514</ele>
      </trkpt>
      <trkpt lat="46.06858" lon="3.5974">
        <ele>513.4</ele>
        <time>2022-02-23T21:54:17Z</time>
      </trkpt>
      <trkpt lat="46.06871" lon="3.59745">
        <ele>512.4</ele>
      </trkpt>
      <trkpt lat="46.06882" lon="3.59752">
        <ele>511.1</ele>
        <time>2022-02-23T21:54:26Z</time>
      </trkpt>
      <trkpt lat="46.06906" lon="3.59757">
        <ele>509.8</ele>
        <time>2022-02-23T21:54:31Z</time>
      </trkpt>
      <trkpt lat="46.06922" lon="3.5976">
        <ele>509.9</ele>
        <time>2022-02-23T21:54:33Z</time>
      </trkpt>
      <trkpt lat="46.06943" lon="3.59763">
        <ele>510.9</ele>
      </trkpt>
      <trkpt lat="46.06962" lon="3.59758">
        <ele>511.6</ele>
      </trkpt>
      <trkpt lat="46.06977" lon="3.59753">
        <ele>511.5</ele>
        <time>2022-02-23T21:54:52Z</time>
      </trkpt>
      <trkpt lat="46.06989" lon="3.59738">
        <ele>512.1</ele>
        <time>2022-02-23T21:54:54Z</time>
      </trkpt>
      <trkpt lat="46.06992" lon="3.59723">
        <ele>513.1</ele>
      </trkpt>
      <trkpt lat="46.0699" lon="3.59703">
        <ele>514.8</ele>
        <time>2022-02-23T21:55:03Z</time>
      </trkpt>
      <trkpt lat="46.06991" lon="3.59678">
        <ele>516.3</ele>
      </trkpt>
      <trkpt lat="46.07001" lon="3.59647">
        <ele>517.3</ele>
        <time>2022-02-23T21:55:09Z</time>
      </trkpt>
      <trkpt lat="46.07022" lon="3.59609">
        <ele>517.2</ele>
      </trkpt>
      <trkpt lat="46.07049" lon="3.59563">
        <ele>518.3</ele>
      </trkpt>
      <trkpt lat="46.07065" lon="3.59539">
        <ele>520.2</ele>
      </trkpt>
      <trkpt lat="46.07082" lon="3.59517">
        <ele>519</ele>
        <time>2022-02-23T21:55:38Z</time>
      </trkpt>
      <trkpt lat="46.07112" lon="3.59486">
        <ele>522.1</ele>
      </trkpt>
      <trkpt lat="46.07135" lon="3.59471">
        <ele>522.6</ele>
        <time>2022-02-23T21:55:53Z</time>
      </trkpt>
      <trkpt lat="46.07129" lon="3.59438">
        <ele>518.6</ele>
        <time>2022-02-23T21:55:57Z</time>
      </trkpt>
      <trkpt lat="46.07137" lon="3.59443">
        <ele>519.7</ele>
      </trkpt>
      <trkpt lat="46.07179" lon="3.59458">
        <ele>522.4</ele>
      </trkpt>
      <trkpt lat="46.07203" lon="3.59446">
        <ele>521.5</ele>
        <time>2022-02-23T21:56:09Z</time>
      </trkpt>
      <trkpt lat="46.07226" lon="3.59433">
        <ele>520.8</ele>
      </trkpt>
      <trkpt lat="46.07257" lon="3.59418">
        <ele>519.1</ele>
        <time>2022-02-23T21:56:26Z</time>
      </trkpt>
      <trkpt lat="46.0729" lon="3.59408">
        <ele>517.6</ele>
      </trkpt>
      <trkpt lat="46.07332" lon="3.594">
        <ele>516.2</ele>
        <time>2022-02-23T21:56:42Z</time>
      </trkpt>
      <trkpt lat="46.0736" lon="3.59408">
        <ele>515.8</ele>
        <time>2022-02-23T21:56:51Z</time>
      </trkpt>
      <trkpt lat="46.07421" lon="3.59394">
        <ele>517.4</ele>
        <time>2022-02-23T21:57:06Z</time>
      </trkpt>
      <trkpt lat="46.07486" lon="3.59392">
        <ele>516.7</ele>
        <time>2022-02-23T21:57:21Z</time>
      </trkpt>
      <trkpt lat="46.07501" lon="3.59393">
        <ele>516.1</ele>
      </trkpt>
      <trkpt lat="46.07529" lon="3.59402">
        <ele>514.4</ele>
      </trkpt>
      <trkpt lat="46.07627" lon="3.59441">
        <ele>509.6</ele>
        <time>2022-02-23T21:57:55Z</time>
      </trkpt>
      <trkpt lat="46.07662" lon="3.59457">
        <ele>507.8</ele>
      </trkpt>
      <trkpt lat="46.07686" lon="3.59469">
        <ele>506.5</ele>
      </trkpt>
      <trkpt lat="46.077" lon="3.59477">
        <ele>506</ele>
      </trkpt>
      <trkpt lat="46.0771" lon="3.59486">
        <ele>507</ele>
        <time>2022-02-23T21:58:15Z</time>
      </trkpt>
      <trkpt lat="46.07725" lon="3.59501">
        <ele>504.7</ele>
      </trkpt>
      <trkpt lat="46.07735" lon="3.59513">
        <ele>503.7</ele>
      </trkpt>
      <trkpt lat="46.07743" lon="3.59517">
        <ele>502.9</ele>
      </trkpt>
      <trkpt lat="46.07748" lon="3.59517">
        <ele>508</ele>
        <time>2022-02-23T21:58:25Z</time>
      </trkpt>
      <trkpt lat="46.07751" lon="3.59517">
        <ele>502.3</ele>
      </trkpt>
      <trkpt lat="46.07765" lon="3.5951">
        <ele>509</ele>
        <time>2022-02-23T21:58:29Z</time>
      </trkpt>
      <trkpt lat="46.07782" lon="3.59498">
        <ele>500.7</ele>
        <time>2022-02-23T21:58:34Z</time>
      </trkpt>
      <trkpt lat="46.07796" lon="3.59473">
        <ele>502</ele>
      </trkpt>
      <trkpt lat="46.07798" lon="3.59456">
        <ele>501.4</ele>
        <time>2022-02-23T21:58:42Z</time>
      </trkpt>
      <trkpt lat="46.07797" lon="3.59436">
        <ele>501</ele>
      </trkpt>
      <trkpt lat="46.07797" lon="3.59434">
        <ele>505</ele>
        <time>2022-02-23T21:58:45Z</time>
      </trkpt>
      <trkpt lat="46.07802" lon="3.59415">
        <ele>503</ele>
        <time>2022-02-23T21:58:48Z</time>
      </trkpt>
      <trkpt lat="46.07831" lon="3.59392">
        <ele>503.1</ele>
      </trkpt>
      <trkpt lat="46.07859" lon="3.59376">
        <ele>501.2</ele>
        <time>2022-02-23T21:59:03Z</time>
      </trkpt>
      <trkpt lat="46.07884" lon="3.59373">
        <ele>499</ele>
        <time>2022-02-23T21:59:11Z</time>
      </trkpt>
      <trkpt lat="46.07908" lon="3.5938">
        <ele>498.2</ele>
        <time>2022-02-23T21:59:22Z</time>
      </trkpt>
      <trkpt lat="46.07941" lon="3.59384">
        <ele>496.8</ele>
        <time>2022-02-23T21:59:27Z</time>
      </trkpt>
      <trkpt lat="46.0795" lon="3.59389">
        <ele>496.2</ele>
      </trkpt>
      <trkpt lat="46.07966" lon="3.5941">
        <ele>492.8</ele>
      </trkpt>
      <trkpt lat="46.07978" lon="3.59416">
        <ele>490</ele>
      </trkpt>
      <trkpt lat="46.08009" lon="3.5942">
        <ele>484.8</ele>
        <time>2022-02-23T21:59:42Z</time>
      </trkpt>
      <trkpt lat="46.08023" lon="3.59426">
        <ele>482.9</ele>
      </trkpt>
      <trkpt lat="46.08051" lon="3.59446">
        <ele>480.1</ele>
      </trkpt>
      <trkpt lat="46.08061" lon="3.59458">
        <ele>479.5</ele>
      </trkpt>
      <trkpt lat="46.08085" lon="3.59474">
        <ele>481.3</ele>
      </trkpt>
      <trkpt lat="46.08095" lon="3.59459">
        <ele>481.2</ele>
        <time>2022-02-23T22:00:03Z</time>
      </trkpt>
      <trkpt lat="46.08116" lon="3.59422">
        <ele>480.9</ele>
      </trkpt>
      <trkpt lat="46.08138" lon="3.59389">
        <ele>480.8</ele>
      </trkpt>
      <trkpt lat="46.08153" lon="3.59362">
        <ele>479.6</ele>
        <time>2022-02-23T22:00:27Z</time>
      </trkpt>
      <trkpt lat="46.08171" lon="3.59342">
        <ele>478.8</ele>
      </trkpt>
      <trkpt lat="46.08247" lon="3.59299">
        <ele>472.1</ele>
        <time>2022-02-23T22:00:52Z</time>
      </trkpt>
      <trkpt lat="46.08262" lon="3.5928">
        <ele>472.4</ele>
        <time>2022-02-23T22:00:55Z</time>
      </trkpt>
      <trkpt lat="46.08267" lon="3.5926">
        <ele>473.6</ele>
      </trkpt>
      <trkpt lat="46.08272" lon="3.59227">
        <ele>476.4</ele>
      </trkpt>
      <trkpt lat="46.08273" lon="3.59196">
        <ele>478.7</ele>
        <time>2022-02-23T22:01:12Z</time>
      </trkpt>
      <trkpt lat="46.08274" lon="3.59184">
        <ele>479.2</ele>
      </trkpt>
      <trkpt lat="46.08279" lon="3.59167">
        <ele>480.1</ele>
      </trkpt>
      <trkpt lat="46.0829" lon="3.59145">
        <ele>481.6</ele>
        <time>2022-02-23T22:01:18Z</time>
      </trkpt>
      <trkpt lat="46.08317" lon="3.59097">
        <ele>484.1</ele>
      </trkpt>
      <trkpt lat="46.08346" lon="3.5905">
        <ele>486.9</ele>
        <time>2022-02-23T22:01:38Z</time>
      </trkpt>
      <trkpt lat="46.08353" lon="3.59033">
        <ele>487.4</ele>
      </trkpt>
      <trkpt lat="46.08363" lon="3.58965">
        <ele>488.4</ele>
      </trkpt>
      <trkpt lat="46.08367" lon="3.58923">
        <ele>490.1</ele>
      </trkpt>
      <trkpt lat="46.08371" lon="3.58899">
        <ele>490.1</ele>
      </trkpt>
      <trkpt lat="46.08376" lon="3.58883">
        <ele>489.9</ele>
        <time>2022-02-23T22:02:08Z</time>
      </trkpt>
      <trkpt lat="46.08457" lon="3.58988">
        <ele>489</ele>
        <time>2022-02-23T22:02:33Z</time>
      </trkpt>
      <trkpt lat="46.0852" lon="3.59057">
        <ele>491</ele>
        <time>2022-02-23T22:02:52Z</time>
      </trkpt>
      <trkpt lat="46.08563" lon="3.59094">
        <ele>494.1</ele>
      </trkpt>
      <trkpt lat="46.08571" lon="3.59098">
        <ele>494.3</ele>
        <time>2022-02-23T22:03:03Z</time>
      </trkpt>
      <trkpt lat="46.08584" lon="3.59103">
        <ele>494.7</ele>
        <time>2022-02-23T22:03:08Z</time>
      </trkpt>
      <trkpt lat="46.08602" lon="3.59108">
        <ele>492</ele>
        <time>2022-02-23T22:03:13Z</time>
      </trkpt>
      <trkpt lat="46.08635" lon="3.59114">
        <ele>495.1</ele>
      </trkpt>
      <trkpt lat="46.08665" lon="3.59121">
        <ele>494.4</ele>
        <time>2022-02-23T22:03:28Z</time>
      </trkpt>
      <trkpt lat="46.08776" lon="3.59128">
        <ele>495</ele>
        <time>2022-02-23T22:03:54Z</time>
      </trkpt>
      <trkpt lat="46.08806" lon="3.59138">
        <ele>496</ele>
      </trkpt>
      <trkpt lat="46.08894" lon="3.59201">
        <ele>497.6</ele>
        <time>2022-02-23T22:04:26Z</time>
      </trkpt>
      <trkpt lat="46.08918" lon="3.59201">
        <ele>498.3</ele>
        <time>2022-02-23T22:04:29Z</time>
      </trkpt>
      <trkpt lat="46.08941" lon="3.5919">
        <ele>499.7</ele>
      </trkpt>
      <trkpt lat="46.08982" lon="3.59162">
        <ele>501.7</ele>
      </trkpt>
      <trkpt lat="46.09024" lon="3.59132">
        <ele>504.7</ele>
        <time>2022-02-23T22:04:58Z</time>
      </trkpt>
      <trkpt lat="46.0906" lon="3.59101">
        <ele>506.7</ele>
        <time>2022-02-23T22:05:07Z</time>
      </trkpt>
      <trkpt lat="46.09107" lon="3.59068">
        <ele>505</ele>
        <time>2022-02-23T22:05:19Z</time>
      </trkpt>
      <trkpt lat="46.09112" lon="3.5895">
        <ele>506</ele>
        <time>2022-02-23T22:05:39Z</time>
      </trkpt>
      <trkpt lat="46.09146" lon="3.5886">
        <ele>508</ele>
        <time>2022-02-23T22:05:55Z</time>
      </trkpt>
      <trkpt lat="46.09201" lon="3.58835">
        <ele>510</ele>
        <time>2022-02-23T22:06:08Z</time>
      </trkpt>
      <trkpt lat="46.09229" lon="3.58807">
        <ele>511</ele>
        <time>2022-02-23T22:06:16Z</time>
      </trkpt>
      <trkpt lat="46.09285" lon="3.58772">
        <ele>507.2</ele>
        <time>2022-02-23T22:06:31Z</time>
      </trkpt>
      <trkpt lat="46.09323" lon="3.58753">
        <ele>510</ele>
        <time>2022-02-23T22:06:40Z</time>
      </trkpt>
      <trkpt lat="46.09355" lon="3.58715">
        <ele>510</ele>
        <time>2022-02-23T22:06:50Z</time>
      </trkpt>
      <trkpt lat="46.09375" lon="3.58706">
        <ele>509</ele>
        <time>2022-02-23T22:06:55Z</time>
      </trkpt>
      <trkpt lat="46.09425" lon="3.58704">
        <ele>505</ele>
        <time>2022-02-23T22:07:06Z</time>
      </trkpt>
      <trkpt lat="46.09441" lon="3.58724">
        <ele>503</ele>
        <time>2022-02-23T22:07:11Z</time>
      </trkpt>
      <trkpt lat="46.09464" lon="3.58741">
        <ele>501</ele>
        <time>2022-02-23T22:07:17Z</time>
      </trkpt>
      <trkpt lat="46.09499" lon="3.58797">
        <ele>496</ele>
        <time>2022-02-23T22:07:30Z</time>
      </trkpt>
      <trkpt lat="46.09521" lon="3.5884">
        <ele>492</ele>
        <time>2022-02-23T22:07:38Z</time>
      </trkpt>
      <trkpt lat="46.09519" lon="3.58847">
        <ele>492</ele>
        <time>2022-02-23T22:07:39Z</time>
      </trkpt>
      <trkpt lat="46.09586" lon="3.589">
        <ele>483</ele>
        <time>2022-02-23T22:07:57Z</time>
      </trkpt>
      <trkpt lat="46.09642" lon="3.58934">
        <ele>477</ele>
        <time>2022-02-23T22:08:11Z</time>
      </trkpt>
      <trkpt lat="46.09667" lon="3.58956">
        <ele>473</ele>
        <time>2022-02-23T22:08:18Z</time>
      </trkpt>
      <trkpt lat="46.09705" lon="3.58972">
        <ele>469</ele>
        <time>2022-02-23T22:08:28Z</time>
      </trkpt>
      <trkpt lat="46.09751" lon="3.5897">
        <ele>466</ele>
        <time>2022-02-23T22:08:38Z</time>
      </trkpt>
      <trkpt lat="46.09865" lon="3.58996">
        <ele>461</ele>
        <time>2022-02-23T22:09:05Z</time>
      </trkpt>
      <trkpt lat="46.09988" lon="3.59033">
        <ele>453</ele>
        <time>2022-02-23T22:09:35Z</time>
      </trkpt>
      <trkpt lat="46.09988" lon="3.59069">
        <ele>452</ele>
        <time>2022-02-23T22:09:40Z</time>
      </trkpt>
      <trkpt lat="46.10014" lon="3.5902">
        <ele>451</ele>
        <time>2022-02-23T22:09:50Z</time>
      </trkpt>
      <trkpt lat="46.10027" lon="3.58955">
        <ele>455</ele>
        <time>2022-02-23T22:10:01Z</time>
      </trkpt>
      <trkpt lat="46.09993" lon="3.58877">
        <ele>468</ele>
        <time>2022-02-23T22:10:16Z</time>
      </trkpt>
      <trkpt lat="46.09978" lon="3.58829">
        <ele>473</ele>
        <time>2022-02-23T22:10:25Z</time>
      </trkpt>
      <trkpt lat="46.09951" lon="3.58772">
        <ele>475</ele>
        <time>2022-02-23T22:10:36Z</time>
      </trkpt>
      <trkpt lat="46.09926" lon="3.58677">
        <ele>476</ele>
        <time>2022-02-23T22:10:52Z</time>
      </trkpt>
      <trkpt lat="46.09903" lon="3.58649">
        <ele>476</ele>
        <time>2022-02-23T22:10:59Z</time>
      </trkpt>
      <trkpt lat="46.09892" lon="3.58628">
        <ele>477</ele>
        <time>2022-02-23T22:11:04Z</time>
      </trkpt>
      <trkpt lat="46.09871" lon="3.58512">
        <ele>485</ele>
        <time>2022-02-23T22:11:23Z</time>
      </trkpt>
      <trkpt lat="46.09863" lon="3.58431">
        <ele>489</ele>
        <time>2022-02-23T22:11:36Z</time>
      </trkpt>
      <trkpt lat="46.09862" lon="3.58382">
        <ele>491</ele>
        <time>2022-02-23T22:11:44Z</time>
      </trkpt>
      <trkpt lat="46.09874" lon="3.58303">
        <ele>491</ele>
        <time>2022-02-23T22:11:57Z</time>
      </trkpt>
      <trkpt lat="46.09872" lon="3.58248">
        <ele>494</ele>
        <time>2022-02-23T22:12:06Z</time>
      </trkpt>
      <trkpt lat="46.09857" lon="3.58209">
        <ele>497</ele>
        <time>2022-02-23T22:12:14Z</time>
      </trkpt>
      <trkpt lat="46.09848" lon="3.58203">
        <ele>500</ele>
        <time>2022-02-23T22:12:16Z</time>
      </trkpt>
      <trkpt lat="46.09827" lon="3.58123">
        <ele>500</ele>
        <time>2022-02-23T22:12:30Z</time>
      </trkpt>
      <trkpt lat="46.0982" lon="3.58073">
        <ele>496</ele>
        <time>2022-02-23T22:12:38Z</time>
      </trkpt>
      <trkpt lat="46.09806" lon="3.58043">
        <ele>493</ele>
        <time>2022-02-23T22:12:44Z</time>
      </trkpt>
      <trkpt lat="46.09777" lon="3.58003">
        <ele>482.6</ele>
      </trkpt>
      <trkpt lat="46.09758" lon="3.57961">
        <ele>488</ele>
        <time>2022-02-23T22:13:01Z</time>
      </trkpt>
      <trkpt lat="46.09719" lon="3.57824">
        <ele>481.4</ele>
      </trkpt>
      <trkpt lat="46.09657" lon="3.57719">
        <ele>470.1</ele>
      </trkpt>
      <trkpt lat="46.09602" lon="3.57581">
        <ele>455.2</ele>
      </trkpt>
      <trkpt lat="46.09509" lon="3.57481">
        <ele>446.1</ele>
      </trkpt>
      <trkpt lat="46.09344" lon="3.57457">
        <ele>428</ele>
      </trkpt>
      <trkpt lat="46.09303" lon="3.57343">
        <ele>421.9</ele>
      </trkpt>
      <trkpt lat="46.09206" lon="3.57272">
        <ele>430.1</ele>
      </trkpt>
      <trkpt lat="46.09178" lon="3.57172">
        <ele>437.5</ele>
      </trkpt>
      <trkpt lat="46.09164" lon="3.57101">
        <ele>433.6</ele>
      </trkpt>
      <trkpt lat="46.09158" lon="3.57004">
        <ele>428.4</ele>
      </trkpt>
      <trkpt lat="46.09204" lon="3.56869">
        <ele>421.6</ele>
      </trkpt>
      <trkpt lat="46.09242" lon="3.5685">
        <ele>420.1</ele>
      </trkpt>
      <trkpt lat="46.09256" lon="3.56809">
        <ele>417</ele>
      </trkpt>
      <trkpt lat="46.09221" lon="3.56749">
        <ele>412.9</ele>
      </trkpt>
      <trkpt lat="46.09203" lon="3.56708">
        <ele>410.2</ele>
      </trkpt>
      <trkpt lat="46.09192" lon="3.56597">
        <ele>404.9</ele>
      </trkpt>
      <trkpt lat="46.09148" lon="3.56579">
        <ele>402.3</ele>
      </trkpt>
      <trkpt lat="46.08989" lon="3.56592">
        <ele>391</ele>
      </trkpt>
      <trkpt lat="46.08944" lon="3.56539">
        <ele>386.4</ele>
        <time>2022-02-23T22:16:00Z</time>
      </trkpt>
      <trkpt lat="46.09003" lon="3.56444">
        <ele>384</ele>
      </trkpt>
      <trkpt lat="46.09082" lon="3.56444">
        <ele>385.9</ele>
      </trkpt>
      <trkpt lat="46.09175" lon="3.56403">
        <ele>387</ele>
      </trkpt>
      <trkpt lat="46.09222" lon="3.56425">
        <ele>388.5</ele>
      </trkpt>
      <trkpt lat="46.09256" lon="3.56461">
        <ele>389.9</ele>
      </trkpt>
      <trkpt lat="46.09286" lon="3.56457">
        <ele>388.2</ele>
      </trkpt>
      <trkpt lat="46.09303" lon="3.56418">
        <ele>388.9</ele>
      </trkpt>
      <trkpt lat="46.09451" lon="3.56388">
        <ele>395.8</ele>
      </trkpt>
      <trkpt lat="46.09486" lon="3.56408">
        <ele>400.8</ele>
      </trkpt>
      <trkpt lat="46.09606" lon="3.56483">
        <ele>416.4</ele>
      </trkpt>
      <trkpt lat="46.09639" lon="3.56487">
        <ele>419.5</ele>
      </trkpt>
      <trkpt lat="46.09701" lon="3.56427">
        <ele>428.6</ele>
      </trkpt>
      <trkpt lat="46.09831" lon="3.56373">
        <ele>439.1</ele>
      </trkpt>
      <trkpt lat="46.09889" lon="3.56374">
        <ele>440</ele>
        <time>2022-02-23T22:17:43Z</time>
      </trkpt>
      <trkpt lat="46.09939" lon="3.56363">
        <ele>439</ele>
        <time>2022-02-23T22:17:55Z</time>
      </trkpt>
      <trkpt lat="46.09983" lon="3.56346">
        <ele>434.7</ele>
        <time>2022-02-23T22:18:06Z</time>
      </trkpt>
      <trkpt lat="46.10009" lon="3.56334">
        <ele>431</ele>
        <time>2022-02-23T22:18:14Z</time>
      </trkpt>
      <trkpt lat="46.10039" lon="3.56326">
        <ele>426.7</ele>
      </trkpt>
      <trkpt lat="46.10066" lon="3.5632">
        <ele>424.8</ele>
        <time>2022-02-23T22:18:20Z</time>
      </trkpt>
      <trkpt lat="46.10086" lon="3.56319">
        <ele>422.7</ele>
      </trkpt>
      <trkpt lat="46.10121" lon="3.56317">
        <ele>418.4</ele>
        <time>2022-02-23T22:18:35Z</time>
      </trkpt>
      <trkpt lat="46.10138" lon="3.56314">
        <ele>415.5</ele>
      </trkpt>
      <trkpt lat="46.10156" lon="3.56291">
        <ele>414.6</ele>
      </trkpt>
      <trkpt lat="46.10164" lon="3.56237">
        <ele>418.2</ele>
        <time>2022-02-23T22:18:51Z</time>
      </trkpt>
      <trkpt lat="46.10167" lon="3.56216">
        <ele>418.1</ele>
        <time>2022-02-23T22:19:03Z</time>
      </trkpt>
      <trkpt lat="46.10185" lon="3.56167">
        <ele>428.4</ele>
        <time>2022-02-23T22:19:11Z</time>
      </trkpt>
      <trkpt lat="46.10226" lon="3.56142">
        <ele>419.3</ele>
      </trkpt>
      <trkpt lat="46.10249" lon="3.56134">
        <ele>411.4</ele>
        <time>2022-02-23T22:19:20Z</time>
      </trkpt>
      <trkpt lat="46.10297" lon="3.56128">
        <ele>396.7</ele>
        <time>2022-02-23T22:19:26Z</time>
      </trkpt>
      <trkpt lat="46.1033" lon="3.56149">
        <ele>403</ele>
        <time>2022-02-23T22:19:34Z</time>
      </trkpt>
      <trkpt lat="46.10349" lon="3.56151">
        <ele>407.2</ele>
        <time>2022-02-23T22:19:39Z</time>
      </trkpt>
      <trkpt lat="46.10386" lon="3.56178">
        <ele>415.8</ele>
        <time>2022-02-23T22:19:46Z</time>
      </trkpt>
      <trkpt lat="46.10397" lon="3.56161">
        <ele>424</ele>
        <time>2022-02-23T22:19:52Z</time>
      </trkpt>
      <trkpt lat="46.10403" lon="3.56145">
        <ele>419.8</ele>
      </trkpt>
      <trkpt lat="46.10404" lon="3.56128">
        <ele>420.7</ele>
        <time>2022-02-23T22:19:56Z</time>
      </trkpt>
      <trkpt lat="46.10407" lon="3.56111">
        <ele>421.9</ele>
      </trkpt>
      <trkpt lat="46.10418" lon="3.56096">
        <ele>422</ele>
        <time>2022-02-23T22:20:03Z</time>
      </trkpt>
      <trkpt lat="46.1043" lon="3.56095">
        <ele>425.8</ele>
      </trkpt>
      <trkpt lat="46.10443" lon="3.56105">
        <ele>425</ele>
        <time>2022-02-23T22:20:09Z</time>
      </trkpt>
      <trkpt lat="46.10472" lon="3.56122">
        <ele>431.4</ele>
        <time>2022-02-23T22:20:17Z</time>
      </trkpt>
      <trkpt lat="46.10505" lon="3.56125">
        <ele>431</ele>
        <time>2022-02-23T22:20:25Z</time>
      </trkpt>
      <trkpt lat="46.10538" lon="3.56109">
        <ele>432</ele>
        <time>2022-02-23T22:20:33Z</time>
      </trkpt>
      <trkpt lat="46.10586" lon="3.56051">
        <ele>440</ele>
        <time>2022-02-23T22:20:48Z</time>
      </trkpt>
      <trkpt lat="46.1062" lon="3.56024">
        <ele>443</ele>
        <time>2022-02-23T22:20:57Z</time>
      </trkpt>
      <trkpt lat="46.10655" lon="3.55948">
        <ele>451</ele>
        <time>2022-02-23T22:21:11Z</time>
      </trkpt>
      <trkpt lat="46.10683" lon="3.5591">
        <ele>456</ele>
        <time>2022-02-23T22:21:20Z</time>
      </trkpt>
      <trkpt lat="46.10724" lon="3.55896">
        <ele>459</ele>
        <time>2022-02-23T22:21:30Z</time>
      </trkpt>
      <trkpt lat="46.10763" lon="3.55851">
        <ele>463</ele>
        <time>2022-02-23T22:21:42Z</time>
      </trkpt>
      <trkpt lat="46.10785" lon="3.55854">
        <ele>464.3</ele>
        <time>2022-02-23T22:21:46Z</time>
      </trkpt>
      <trkpt lat="46.10788" lon="3.55826">
        <ele>464</ele>
        <time>2022-02-23T22:21:51Z</time>
      </trkpt>
      <trkpt lat="46.10783" lon="3.5577">
        <ele>463.2</ele>
        <time>2022-02-23T22:22:00Z</time>
      </trkpt>
      <trkpt lat="46.10777" lon="3.55696">
        <ele>460</ele>
        <time>2022-02-23T22:22:12Z</time>
      </trkpt>
      <trkpt lat="46.10781" lon="3.55643">
        <ele>458</ele>
        <time>2022-02-23T22:22:21Z</time>
      </trkpt>
      <trkpt lat="46.10807" lon="3.55512">
        <ele>455.4</ele>
        <time>2022-02-23T22:22:43Z</time>
      </trkpt>
      <trkpt lat="46.10816" lon="3.55416">
        <ele>450.4</ele>
        <time>2022-02-23T22:22:59Z</time>
      </trkpt>
      <trkpt lat="46.10817" lon="3.55354">
        <ele>448.8</ele>
        <time>2022-02-23T22:23:11Z</time>
      </trkpt>
      <trkpt lat="46.1079" lon="3.55252">
        <ele>441.1</ele>
      </trkpt>
      <trkpt lat="46.10779" lon="3.55196">
        <ele>436.2</ele>
        <time>2022-02-23T22:23:39Z</time>
      </trkpt>
      <trkpt lat="46.10756" lon="3.55136">
        <ele>428.6</ele>
      </trkpt>
      <trkpt lat="46.10727" lon="3.55073">
        <ele>421.4</ele>
        <time>2022-02-23T22:23:59Z</time>
      </trkpt>
      <trkpt lat="46.10687" lon="3.55012">
        <ele>413</ele>
        <time>2022-02-23T22:24:13Z</time>
      </trkpt>
      <trkpt lat="46.10651" lon="3.54957">
        <ele>405</ele>
        <time>2022-02-23T22:24:25Z</time>
      </trkpt>
      <trkpt lat="46.10636" lon="3.54914">
        <ele>398.1</ele>
        <time>2022-02-23T22:24:36Z</time>
      </trkpt>
      <trkpt lat="46.10597" lon="3.54879">
        <ele>389.3</ele>
        <time>2022-02-23T22:24:44Z</time>
      </trkpt>
      <trkpt lat="46.10552" lon="3.54849">
        <ele>384.7</ele>
        <time>2022-02-23T22:24:56Z</time>
      </trkpt>
      <trkpt lat="46.10537" lon="3.54845">
        <ele>385.7</ele>
      </trkpt>
      <trkpt lat="46.10516" lon="3.54843">
        <ele>386</ele>
        <time>2022-02-23T22:25:05Z</time>
      </trkpt>
      <trkpt lat="46.10463" lon="3.54844">
        <ele>390</ele>
        <time>2022-02-23T22:25:17Z</time>
      </trkpt>
      <trkpt lat="46.10446" lon="3.54833">
        <ele>389</ele>
        <time>2022-02-23T22:25:21Z</time>
      </trkpt>
      <trkpt lat="46.10401" lon="3.548">
        <ele>389.2</ele>
      </trkpt>
      <trkpt lat="46.10392" lon="3.54784">
        <ele>390</ele>
        <time>2022-02-23T22:25:36Z</time>
      </trkpt>
      <trkpt lat="46.10379" lon="3.54747">
        <ele>391</ele>
        <time>2022-02-23T22:25:43Z</time>
      </trkpt>
      <trkpt lat="46.10375" lon="3.54698">
        <ele>390.2</ele>
        <time>2022-02-23T22:25:51Z</time>
      </trkpt>
      <trkpt lat="46.10368" lon="3.54653">
        <ele>390.4</ele>
        <time>2022-02-23T22:25:58Z</time>
      </trkpt>
      <trkpt lat="46.10353" lon="3.54605">
        <ele>391.5</ele>
        <time>2022-02-23T22:26:08Z</time>
      </trkpt>
      <trkpt lat="46.10339" lon="3.54582">
        <ele>394</ele>
        <time>2022-02-23T22:26:13Z</time>
      </trkpt>
      <trkpt lat="46.10302" lon="3.54563">
        <ele>397.4</ele>
        <time>2022-02-23T22:26:24Z</time>
      </trkpt>
      <trkpt lat="46.10295" lon="3.54558">
        <ele>396.8</ele>
      </trkpt>
      <trkpt lat="46.10291" lon="3.54553">
        <ele>396.5</ele>
      </trkpt>
      <trkpt lat="46.10249" lon="3.54505">
        <ele>392.7</ele>
        <time>2022-02-23T22:26:37Z</time>
      </trkpt>
      <trkpt lat="46.10205" lon="3.54455">
        <ele>390</ele>
        <time>2022-02-23T22:26:46Z</time>
      </trkpt>
      <trkpt lat="46.10179" lon="3.54412">
        <ele>387.1</ele>
        <time>2022-02-23T22:27:01Z</time>
      </trkpt>
      <trkpt lat="46.10162" lon="3.54398">
        <ele>386.7</ele>
        <time>2022-02-23T22:27:06Z</time>
      </trkpt>
      <trkpt lat="46.1012" lon="3.54404">
        <ele>387.7</ele>
        <time>2022-02-23T22:27:14Z</time>
      </trkpt>
      <trkpt lat="46.10089" lon="3.54389">
        <ele>389.2</ele>
        <time>2022-02-23T22:27:22Z</time>
      </trkpt>
      <trkpt lat="46.10053" lon="3.54352">
        <ele>397</ele>
        <time>2022-02-23T22:27:32Z</time>
      </trkpt>
      <trkpt lat="46.10028" lon="3.54323">
        <ele>393.5</ele>
        <time>2022-02-23T22:27:40Z</time>
      </trkpt>
      <trkpt lat="46.10008" lon="3.54298">
        <ele>392.3</ele>
      </trkpt>
      <trkpt lat="46.09982" lon="3.54273">
        <ele>390.7</ele>
      </trkpt>
      <trkpt lat="46.09976" lon="3.54269">
        <ele>390.5</ele>
        <time>2022-02-23T22:27:55Z</time>
      </trkpt>
      <trkpt lat="46.09957" lon="3.54249">
        <ele>389.3</ele>
      </trkpt>
      <trkpt lat="46.09951" lon="3.54242">
        <ele>389</ele>
        <time>2022-02-23T22:28:02Z</time>
      </trkpt>
      <trkpt lat="46.09945" lon="3.54233">
        <ele>388.4</ele>
      </trkpt>
      <trkpt lat="46.09925" lon="3.5421">
        <ele>388.5</ele>
        <time>2022-02-23T22:28:13Z</time>
      </trkpt>
      <trkpt lat="46.09907" lon="3.54199">
        <ele>390.1</ele>
      </trkpt>
      <trkpt lat="46.09871" lon="3.54195">
        <ele>394.6</ele>
        <time>2022-02-23T22:28:24Z</time>
      </trkpt>
      <trkpt lat="46.09834" lon="3.54201">
        <ele>399</ele>
        <time>2022-02-23T22:28:33Z</time>
      </trkpt>
      <trkpt lat="46.09802" lon="3.54209">
        <ele>407</ele>
        <time>2022-02-23T22:28:40Z</time>
      </trkpt>
      <trkpt lat="46.0976" lon="3.54235">
        <ele>408.2</ele>
        <time>2022-02-23T22:28:54Z</time>
      </trkpt>
      <trkpt lat="46.09749" lon="3.54243">
        <ele>409.9</ele>
      </trkpt>
      <trkpt lat="46.09741" lon="3.54242">
        <ele>410.4</ele>
        <time>2022-02-23T22:28:59Z</time>
      </trkpt>
      <trkpt lat="46.09738" lon="3.5421">
        <ele>414</ele>
        <time>2022-02-23T22:29:05Z</time>
      </trkpt>
      <trkpt lat="46.09715" lon="3.54124">
        <ele>423</ele>
        <time>2022-02-23T22:29:19Z</time>
      </trkpt>
      <trkpt lat="46.097" lon="3.54099">
        <ele>426</ele>
      </trkpt>
      <trkpt lat="46.09678" lon="3.54051">
        <ele>428.1</ele>
      </trkpt>
      <trkpt lat="46.09652" lon="3.54001">
        <ele>428.6</ele>
        <time>2022-02-23T22:29:47Z</time>
      </trkpt>
      <trkpt lat="46.09647" lon="3.53978">
        <ele>428.6</ele>
      </trkpt>
      <trkpt lat="46.09645" lon="3.53911">
        <ele>427.4</ele>
      </trkpt>
      <trkpt lat="46.09646" lon="3.53816">
        <ele>430.2</ele>
      </trkpt>
      <trkpt lat="46.09651" lon="3.53775">
        <ele>432.3</ele>
        <time>2022-02-23T22:30:24Z</time>
      </trkpt>
      <trkpt lat="46.09651" lon="3.53761">
        <ele>432.8</ele>
      </trkpt>
      <trkpt lat="46.09647" lon="3.53751">
        <ele>432.1</ele>
      </trkpt>
      <trkpt lat="46.09641" lon="3.53742">
        <ele>437</ele>
        <time>2022-02-23T22:30:27Z</time>
      </trkpt>
      <trkpt lat="46.09623" lon="3.53731">
        <ele>431.9</ele>
      </trkpt>
      <trkpt lat="46.09593" lon="3.5373">
        <ele>432</ele>
        <time>2022-02-23T22:30:39Z</time>
      </trkpt>
      <trkpt lat="46.09568" lon="3.53719">
        <ele>429.8</ele>
        <time>2022-02-23T22:30:45Z</time>
      </trkpt>
      <trkpt lat="46.09559" lon="3.53717">
        <ele>429.7</ele>
      </trkpt>
      <trkpt lat="46.09553" lon="3.53716">
        <ele>429.5</ele>
      </trkpt>
      <trkpt lat="46.09529" lon="3.53714">
        <ele>428.3</ele>
        <time>2022-02-23T22:30:54Z</time>
      </trkpt>
      <trkpt lat="46.09522" lon="3.53731">
        <ele>426.9</ele>
      </trkpt>
      <trkpt lat="46.09504" lon="3.53757">
        <ele>425</ele>
        <time>2022-02-23T22:31:03Z</time>
      </trkpt>
      <trkpt lat="46.09482" lon="3.53789">
        <ele>423.2</ele>
      </trkpt>
      <trkpt lat="46.09445" lon="3.53813">
        <ele>419.5</ele>
        <time>2022-02-23T22:31:21Z</time>
      </trkpt>
      <trkpt lat="46.09414" lon="3.53819">
        <ele>415.3</ele>
        <time>2022-02-23T22:31:30Z</time>
      </trkpt>
      <trkpt lat="46.09375" lon="3.53819">
        <ele>412.1</ele>
      </trkpt>
      <trkpt lat="46.09326" lon="3.5381">
        <ele>406.6</ele>
        <time>2022-02-23T22:31:50Z</time>
      </trkpt>
      <trkpt lat="46.09277" lon="3.53794">
        <ele>401.1</ele>
        <time>2022-02-23T22:32:01Z</time>
      </trkpt>
      <trkpt lat="46.09229" lon="3.5378">
        <ele>396</ele>
        <time>2022-02-23T22:32:12Z</time>
      </trkpt>
      <trkpt lat="46.09192" lon="3.53767">
        <ele>397.5</ele>
        <time>2022-02-23T22:32:25Z</time>
      </trkpt>
      <trkpt lat="46.09162" lon="3.53758">
        <ele>395.8</ele>
      </trkpt>
      <trkpt lat="46.09125" lon="3.53758">
        <ele>394.6</ele>
      </trkpt>
      <trkpt lat="46.09106" lon="3.53768">
        <ele>393.5</ele>
        <time>2022-02-23T22:32:42Z</time>
      </trkpt>
      <trkpt lat="46.09054" lon="3.53793">
        <ele>389.3</ele>
        <time>2022-02-23T22:32:56Z</time>
      </trkpt>
      <trkpt lat="46.09021" lon="3.53808">
        <ele>384.9</ele>
        <time>2022-02-23T22:33:03Z</time>
      </trkpt>
      <trkpt lat="46.0899" lon="3.53813">
        <ele>380.6</ele>
      </trkpt>
      <trkpt lat="46.08966" lon="3.53811">
        <ele>377.3</ele>
        <time>2022-02-23T22:33:14Z</time>
      </trkpt>
      <trkpt lat="46.08938" lon="3.53799">
        <ele>374.9</ele>
        <time>2022-02-23T22:33:22Z</time>
      </trkpt>
      <trkpt lat="46.08913" lon="3.5378">
        <ele>376</ele>
        <time>2022-02-23T22:33:28Z</time>
      </trkpt>
      <trkpt lat="46.08905" lon="3.53763">
        <ele>374</ele>
        <time>2022-02-23T22:33:32Z</time>
      </trkpt>
      <trkpt lat="46.08892" lon="3.53724">
        <ele>369</ele>
        <time>2022-02-23T22:33:39Z</time>
      </trkpt>
      <trkpt lat="46.08869" lon="3.53738">
        <ele>365</ele>
        <time>2022-02-23T22:33:45Z</time>
      </trkpt>
      <trkpt lat="46.0885" lon="3.53759">
        <ele>361</ele>
        <time>2022-02-23T22:33:50Z</time>
      </trkpt>
      <trkpt lat="46.08849" lon="3.53735">
        <ele>360</ele>
        <time>2022-02-23T22:33:54Z</time>
      </trkpt>
      <trkpt lat="46.08862" lon="3.53685">
        <ele>359</ele>
        <time>2022-02-23T22:34:03Z</time>
      </trkpt>
      <trkpt lat="46.08882" lon="3.53649">
        <ele>359</ele>
        <time>2022-02-23T22:34:10Z</time>
      </trkpt>
      <trkpt lat="46.0889" lon="3.53628">
        <ele>357</ele>
        <time>2022-02-23T22:34:14Z</time>
      </trkpt>
      <trkpt lat="46.08921" lon="3.53581">
        <ele>353</ele>
        <time>2022-02-23T22:34:25Z</time>
      </trkpt>
      <trkpt lat="46.08937" lon="3.5354">
        <ele>348</ele>
        <time>2022-02-23T22:34:32Z</time>
      </trkpt>
      <trkpt lat="46.08818" lon="3.5365">
        <ele>346</ele>
        <time>2022-02-23T22:35:05Z</time>
      </trkpt>
      <trkpt lat="46.08743" lon="3.53779">
        <ele>341</ele>
        <time>2022-02-23T22:35:32Z</time>
      </trkpt>
      <trkpt lat="46.08741" lon="3.53786">
        <ele>336.5</ele>
      </trkpt>
      <trkpt lat="46.08715" lon="3.53755">
        <ele>333.4</ele>
        <time>2022-02-23T22:35:40Z</time>
      </trkpt>
      <trkpt lat="46.08689" lon="3.53738">
        <ele>337</ele>
        <time>2022-02-23T22:35:47Z</time>
      </trkpt>
      <trkpt lat="46.08664" lon="3.53739">
        <ele>336.1</ele>
        <time>2022-02-23T22:35:51Z</time>
      </trkpt>
      <trkpt lat="46.08649" lon="3.53719">
        <ele>336.6</ele>
      </trkpt>
      <trkpt lat="46.08638" lon="3.53708">
        <ele>337.1</ele>
        <time>2022-02-23T22:36:00Z</time>
      </trkpt>
      <trkpt lat="46.0863" lon="3.53702">
        <ele>339</ele>
        <time>2022-02-23T22:36:02Z</time>
      </trkpt>
      <trkpt lat="46.08618" lon="3.53696">
        <ele>338.5</ele>
      </trkpt>
      <trkpt lat="46.08611" lon="3.53692">
        <ele>339</ele>
        <time>2022-02-23T22:36:06Z</time>
      </trkpt>
      <trkpt lat="46.086" lon="3.53683">
        <ele>339.6</ele>
      </trkpt>
      <trkpt lat="46.08595" lon="3.53671">
        <ele>340.1</ele>
      </trkpt>
      <trkpt lat="46.08594" lon="3.53662">
        <ele>340.6</ele>
        <time>2022-02-23T22:36:13Z</time>
      </trkpt>
      <trkpt lat="46.08593" lon="3.53644">
        <ele>341.9</ele>
        <time>2022-02-23T22:36:18Z</time>
      </trkpt>
      <trkpt lat="46.086" lon="3.53625">
        <ele>343.8</ele>
      </trkpt>
      <trkpt lat="46.08607" lon="3.53617">
        <ele>344.5</ele>
        <time>2022-02-23T22:36:23Z</time>
      </trkpt>
      <trkpt lat="46.08632" lon="3.53592">
        <ele>347.7</ele>
      </trkpt>
      <trkpt lat="46.08665" lon="3.53562">
        <ele>353.1</ele>
        <time>2022-02-23T22:36:40Z</time>
      </trkpt>
      <trkpt lat="46.08681" lon="3.53542">
        <ele>356.2</ele>
        <time>2022-02-23T22:36:45Z</time>
      </trkpt>
      <trkpt lat="46.0868" lon="3.53522">
        <ele>360.4</ele>
        <time>2022-02-23T22:36:49Z</time>
      </trkpt>
      <trkpt lat="46.08655" lon="3.53472">
        <ele>367.1</ele>
      </trkpt>
      <trkpt lat="46.08672" lon="3.53393">
        <ele>371.2</ele>
      </trkpt>
      <trkpt lat="46.08669" lon="3.53311">
        <ele>378.4</ele>
      </trkpt>
      <trkpt lat="46.08579" lon="3.53185">
        <ele>392.8</ele>
      </trkpt>
      <trkpt lat="46.08526" lon="3.53105">
        <ele>400.4</ele>
      </trkpt>
      <trkpt lat="46.08506" lon="3.53039">
        <ele>404.8</ele>
      </trkpt>
      <trkpt lat="46.08563" lon="3.52972">
        <ele>394.4</ele>
      </trkpt>
      <trkpt lat="46.08563" lon="3.52807">
        <ele>386.8</ele>
      </trkpt>
      <trkpt lat="46.08599" lon="3.52766">
        <ele>388.8</ele>
      </trkpt>
      <trkpt lat="46.0867" lon="3.52831">
        <ele>392.3</ele>
      </trkpt>
      <trkpt lat="46.08767" lon="3.52936">
        <ele>396.9</ele>
      </trkpt>
      <trkpt lat="46.08846" lon="3.53043">
        <ele>385.5</ele>
      </trkpt>
      <trkpt lat="46.08859" lon="3.53135">
        <ele>371.6</ele>
      </trkpt>
      <trkpt lat="46.08928" lon="3.53163">
        <ele>360.2</ele>
      </trkpt>
      <trkpt lat="46.08943" lon="3.53143">
        <ele>358.1</ele>
      </trkpt>
      <trkpt lat="46.08968" lon="3.53112">
        <ele>354.9</ele>
      </trkpt>
      <trkpt lat="46.09045" lon="3.53062">
        <ele>342.3</ele>
      </trkpt>
      <trkpt lat="46.09112" lon="3.52951">
        <ele>339.3</ele>
      </trkpt>
      <trkpt lat="46.09181" lon="3.52861">
        <ele>343.7</ele>
      </trkpt>
      <trkpt lat="46.09215" lon="3.52829">
        <ele>346.7</ele>
      </trkpt>
      <trkpt lat="46.09215" lon="3.52747">
        <ele>348.4</ele>
      </trkpt>
      <trkpt lat="46.09216" lon="3.52629">
        <ele>350.5</ele>
      </trkpt>
      <trkpt lat="46.09245" lon="3.5253">
        <ele>350.8</ele>
      </trkpt>
      <trkpt lat="46.09221" lon="3.52507">
        <ele>354.7</ele>
      </trkpt>
      <trkpt lat="46.09219" lon="3.52487">
        <ele>356.7</ele>
      </trkpt>
      <trkpt lat="46.09271" lon="3.52498">
        <ele>354.3</ele>
      </trkpt>
      <trkpt lat="46.0931" lon="3.52483">
        <ele>356.8</ele>
      </trkpt>
      <trkpt lat="46.09329" lon="3.52444">
        <ele>358.9</ele>
      </trkpt>
      <trkpt lat="46.093" lon="3.52372">
        <ele>357.9</ele>
      </trkpt>
      <trkpt lat="46.09257" lon="3.52318">
        <ele>358.1</ele>
      </trkpt>
      <trkpt lat="46.0923" lon="3.52219">
        <ele>360</ele>
      </trkpt>
      <trkpt lat="46.09258" lon="3.52219">
        <ele>356</ele>
      </trkpt>
      <trkpt lat="46.09319" lon="3.52284">
        <ele>348.1</ele>
      </trkpt>
      <trkpt lat="46.09353" lon="3.52277">
        <ele>347.1</ele>
      </trkpt>
      <trkpt lat="46.09477" lon="3.52159">
        <ele>360.6</ele>
      </trkpt>
      <trkpt lat="46.09484" lon="3.52131">
        <ele>361.2</ele>
      </trkpt>
      <trkpt lat="46.09469" lon="3.51914">
        <ele>383.5</ele>
      </trkpt>
      <trkpt lat="46.09453" lon="3.51859">
        <ele>387</ele>
      </trkpt>
      <trkpt lat="46.09405" lon="3.51822">
        <ele>390.6</ele>
      </trkpt>
      <trkpt lat="46.09401" lon="3.5179">
        <ele>392.8</ele>
      </trkpt>
      <trkpt lat="46.09481" lon="3.5173">
        <ele>390.6</ele>
      </trkpt>
      <trkpt lat="46.09496" lon="3.51666">
        <ele>387.7</ele>
      </trkpt>
      <trkpt lat="46.09441" lon="3.51496">
        <ele>398.9</ele>
      </trkpt>
      <trkpt lat="46.09446" lon="3.51466">
        <ele>400.6</ele>
      </trkpt>
      <trkpt lat="46.09627" lon="3.51494">
        <ele>407.5</ele>
      </trkpt>
      <trkpt lat="46.09684" lon="3.51485">
        <ele>412.2</ele>
      </trkpt>
      <trkpt lat="46.09758" lon="3.51455">
        <ele>418.5</ele>
      </trkpt>
      <trkpt lat="46.09792" lon="3.51421">
        <ele>420.1</ele>
      </trkpt>
      <trkpt lat="46.09819" lon="3.51369">
        <ele>419.7</ele>
      </trkpt>
      <trkpt lat="46.09871" lon="3.51219">
        <ele>411.4</ele>
      </trkpt>
      <trkpt lat="46.09896" lon="3.51168">
        <ele>411.1</ele>
      </trkpt>
      <trkpt lat="46.09945" lon="3.51172">
        <ele>403.2</ele>
      </trkpt>
      <trkpt lat="46.09963" lon="3.51144">
        <ele>404.1</ele>
      </trkpt>
      <trkpt lat="46.09978" lon="3.51112">
        <ele>403.7</ele>
      </trkpt>
      <trkpt lat="46.10003" lon="3.51073">
        <ele>396.4</ele>
      </trkpt>
      <trkpt lat="46.10042" lon="3.51075">
        <ele>389.9</ele>
      </trkpt>
      <trkpt lat="46.10054" lon="3.51048">
        <ele>382.3</ele>
      </trkpt>
      <trkpt lat="46.10122" lon="3.51106">
        <ele>359.7</ele>
      </trkpt>
      <trkpt lat="46.10121" lon="3.51065">
        <ele>356.9</ele>
      </trkpt>
      <trkpt lat="46.10094" lon="3.51011">
        <ele>357.1</ele>
      </trkpt>
      <trkpt lat="46.10058" lon="3.50996">
        <ele>365.6</ele>
      </trkpt>
      <trkpt lat="46.10005" lon="3.50983">
        <ele>361.1</ele>
      </trkpt>
      <trkpt lat="46.09968" lon="3.5096">
        <ele>362.5</ele>
      </trkpt>
      <trkpt lat="46.09944" lon="3.50921">
        <ele>363.4</ele>
      </trkpt>
      <trkpt lat="46.09895" lon="3.50917">
        <ele>371.6</ele>
      </trkpt>
      <trkpt lat="46.09858" lon="3.50895">
        <ele>369.9</ele>
      </trkpt>
      <trkpt lat="46.09809" lon="3.50865">
        <ele>375.5</ele>
      </trkpt>
      <trkpt lat="46.09749" lon="3.50921">
        <ele>377.8</ele>
      </trkpt>
      <trkpt lat="46.09701" lon="3.50957">
        <ele>387.1</ele>
      </trkpt>
      <trkpt lat="46.09675" lon="3.50962">
        <ele>388.6</ele>
      </trkpt>
      <trkpt lat="46.0962" lon="3.50904">
        <ele>396.2</ele>
      </trkpt>
      <trkpt lat="46.09569" lon="3.50839">
        <ele>401.9</ele>
      </trkpt>
      <trkpt lat="46.09541" lon="3.5081">
        <ele>403.4</ele>
      </trkpt>
      <trkpt lat="46.09498" lon="3.50703">
        <ele>418.7</ele>
      </trkpt>
      <trkpt lat="46.09466" lon="3.50677">
        <ele>427.7</ele>
      </trkpt>
      <trkpt lat="46.09452" lon="3.50677">
        <ele>431.3</ele>
      </trkpt>
      <trkpt lat="46.09425" lon="3.507">
        <ele>435</ele>
      </trkpt>
      <trkpt lat="46.09372" lon="3.5068">
        <ele>443</ele>
      </trkpt>
      <trkpt lat="46.09334" lon="3.5066">
        <ele>451.4</ele>
      </trkpt>
      <trkpt lat="46.09301" lon="3.5063">
        <ele>457.7</ele>
      </trkpt>
      <trkpt lat="46.09256" lon="3.50635">
        <ele>460</ele>
      </trkpt>
      <trkpt lat="46.09226" lon="3.50618">
        <ele>461.1</ele>
      </trkpt>
      <trkpt lat="46.09233" lon="3.50601">
        <ele>460</ele>
      </trkpt>
      <trkpt lat="46.09265" lon="3.50568">
        <ele>458.7</ele>
      </trkpt>
      <trkpt lat="46.0928" lon="3.50544">
        <ele>458.7</ele>
        <time>2022-02-23T22:52:36Z</time>
      </trkpt>
      <trkpt lat="46.09304" lon="3.50463">
        <ele>457.6</ele>
      </trkpt>
      <trkpt lat="46.09329" lon="3.50376">
        <ele>456</ele>
        <time>2022-02-23T22:53:05Z</time>
      </trkpt>
      <trkpt lat="46.09338" lon="3.50345">
        <ele>457.5</ele>
      </trkpt>
      <trkpt lat="46.09344" lon="3.50285">
        <ele>457.6</ele>
      </trkpt>
      <trkpt lat="46.09346" lon="3.50225">
        <ele>458.2</ele>
        <time>2022-02-23T22:53:31Z</time>
      </trkpt>
      <trkpt lat="46.0935" lon="3.50192">
        <ele>459.9</ele>
      </trkpt>
      <trkpt lat="46.09365" lon="3.50125">
        <ele>462.2</ele>
        <time>2022-02-23T22:53:48Z</time>
      </trkpt>
      <trkpt lat="46.09378" lon="3.50078">
        <ele>462</ele>
      </trkpt>
      <trkpt lat="46.09385" lon="3.50045">
        <ele>461.5</ele>
      </trkpt>
      <trkpt lat="46.09397" lon="3.49997">
        <ele>462.9</ele>
      </trkpt>
      <trkpt lat="46.0941" lon="3.49956">
        <ele>463.4</ele>
      </trkpt>
      <trkpt lat="46.09424" lon="3.4993">
        <ele>463.8</ele>
      </trkpt>
      <trkpt lat="46.0943" lon="3.4992">
        <ele>464.1</ele>
        <time>2022-02-23T22:54:27Z</time>
      </trkpt>
      <trkpt lat="46.09434" lon="3.49907">
        <ele>464.1</ele>
      </trkpt>
      <trkpt lat="46.09436" lon="3.49889">
        <ele>463.6</ele>
        <time>2022-02-23T22:54:28Z</time>
      </trkpt>
      <trkpt lat="46.09435" lon="3.49852">
        <ele>463.3</ele>
      </trkpt>
      <trkpt lat="46.09431" lon="3.49811">
        <ele>462.2</ele>
      </trkpt>
      <trkpt lat="46.0943" lon="3.49767">
        <ele>460.5</ele>
      </trkpt>
      <trkpt lat="46.09428" lon="3.49718">
        <ele>458.2</ele>
        <time>2022-02-23T22:54:58Z</time>
      </trkpt>
      <trkpt lat="46.0942" lon="3.49664">
        <ele>456.7</ele>
      </trkpt>
      <trkpt lat="46.09412" lon="3.49614">
        <ele>455</ele>
        <time>2022-02-23T22:55:15Z</time>
      </trkpt>
      <trkpt lat="46.09412" lon="3.49551">
        <ele>454</ele>
      </trkpt>
      <trkpt lat="46.09413" lon="3.49525">
        <ele>453.4</ele>
      </trkpt>
      <trkpt lat="46.09419" lon="3.49498">
        <ele>453</ele>
        <time>2022-02-23T22:55:31Z</time>
      </trkpt>
      <trkpt lat="46.09453" lon="3.49401">
        <ele>447.9</ele>
      </trkpt>
      <trkpt lat="46.09465" lon="3.49352">
        <ele>449.4</ele>
        <time>2022-02-23T22:55:57Z</time>
      </trkpt>
      <trkpt lat="46.09487" lon="3.49296">
        <ele>450.1</ele>
      </trkpt>
      <trkpt lat="46.09512" lon="3.49244">
        <ele>446.3</ele>
      </trkpt>
      <trkpt lat="46.09532" lon="3.49203">
        <ele>442.2</ele>
      </trkpt>
      <trkpt lat="46.09547" lon="3.49156">
        <ele>440.4</ele>
      </trkpt>
      <trkpt lat="46.09556" lon="3.49139">
        <ele>440</ele>
      </trkpt>
      <trkpt lat="46.09568" lon="3.49098">
        <ele>436</ele>
        <time>2022-02-23T22:56:46Z</time>
      </trkpt>
      <trkpt lat="46.09575" lon="3.49091">
        <ele>436.8</ele>
      </trkpt>
      <trkpt lat="46.09653" lon="3.48851">
        <ele>416.6</ele>
        <time>2022-02-23T22:57:29Z</time>
      </trkpt>
      <trkpt lat="46.09655" lon="3.48834">
        <ele>415.8</ele>
      </trkpt>
      <trkpt lat="46.0972" lon="3.48668">
        <ele>406</ele>
        <time>2022-02-23T22:58:04Z</time>
      </trkpt>
      <trkpt lat="46.09815" lon="3.48534">
        <ele>390.6</ele>
        <time>2022-02-23T22:58:39Z</time>
      </trkpt>
      <trkpt lat="46.09835" lon="3.48506">
        <ele>387.2</ele>
      </trkpt>
      <trkpt lat="46.09863" lon="3.4846">
        <ele>381</ele>
      </trkpt>
      <trkpt lat="46.0987" lon="3.48444">
        <ele>379.3</ele>
      </trkpt>
      <trkpt lat="46.09878" lon="3.48432">
        <ele>378</ele>
      </trkpt>
      <trkpt lat="46.09892" lon="3.48416">
        <ele>377.1</ele>
      </trkpt>
      <trkpt lat="46.09916" lon="3.48371">
        <ele>372.7</ele>
      </trkpt>
      <trkpt lat="46.0992" lon="3.48362">
        <ele>371.7</ele>
      </trkpt>
      <trkpt lat="46.09925" lon="3.48344">
        <ele>368.4</ele>
      </trkpt>
      <trkpt lat="46.09948" lon="3.4832">
        <ele>368</ele>
        <time>2022-02-23T22:59:21Z</time>
      </trkpt>
      <trkpt lat="46.09975" lon="3.48295">
        <ele>356.5</ele>
      </trkpt>
      <trkpt lat="46.1003" lon="3.48276">
        <ele>346.1</ele>
        <time>2022-02-23T22:59:42Z</time>
      </trkpt>
      <trkpt lat="46.10082" lon="3.48214">
        <ele>347.8</ele>
        <time>2022-02-23T22:59:59Z</time>
      </trkpt>
      <trkpt lat="46.10087" lon="3.48206">
        <ele>348.4</ele>
      </trkpt>
      <trkpt lat="46.10088" lon="3.4819">
        <ele>349.8</ele>
      </trkpt>
      <trkpt lat="46.10085" lon="3.48176">
        <ele>351.1</ele>
      </trkpt>
      <trkpt lat="46.10112" lon="3.48171">
        <ele>352.2</ele>
      </trkpt>
      <trkpt lat="46.10122" lon="3.48139">
        <ele>356.4</ele>
      </trkpt>
      <trkpt lat="46.10127" lon="3.48116">
        <ele>358.6</ele>
      </trkpt>
      <trkpt lat="46.10138" lon="3.48089">
        <ele>357.7</ele>
        <time>2022-02-23T23:00:24Z</time>
      </trkpt>
      <trkpt lat="46.10165" lon="3.48049">
        <ele>361.1</ele>
      </trkpt>
      <trkpt lat="46.10182" lon="3.48009">
        <ele>363.1</ele>
      </trkpt>
      <trkpt lat="46.1019" lon="3.47996">
        <ele>362.1</ele>
      </trkpt>
      <trkpt lat="46.10209" lon="3.47971">
        <ele>364.5</ele>
      </trkpt>
      <trkpt lat="46.10227" lon="3.47937">
        <ele>364.8</ele>
        <time>2022-02-23T23:00:54Z</time>
      </trkpt>
      <trkpt lat="46.10239" lon="3.47917">
        <ele>368.6</ele>
      </trkpt>
      <trkpt lat="46.10252" lon="3.47906">
        <ele>372.3</ele>
      </trkpt>
      <trkpt lat="46.10288" lon="3.47844">
        <ele>382</ele>
        <time>2022-02-23T23:01:16Z</time>
      </trkpt>
      <trkpt lat="46.10325" lon="3.47793">
        <ele>389.6</ele>
      </trkpt>
      <trkpt lat="46.10354" lon="3.47745">
        <ele>395.1</ele>
      </trkpt>
      <trkpt lat="46.10391" lon="3.47696">
        <ele>400</ele>
        <time>2022-02-23T23:01:48Z</time>
      </trkpt>
      <trkpt lat="46.10405" lon="3.47701">
        <ele>400.5</ele>
      </trkpt>
      <trkpt lat="46.10463" lon="3.47704">
        <ele>403</ele>
        <time>2022-02-23T23:02:06Z</time>
      </trkpt>
      <trkpt lat="46.1047" lon="3.47597">
        <ele>398.1</ele>
        <time>2022-02-23T23:02:28Z</time>
      </trkpt>
      <trkpt lat="46.1047" lon="3.47568">
        <ele>395</ele>
      </trkpt>
      <trkpt lat="46.10468" lon="3.47538">
        <ele>391.9</ele>
      </trkpt>
      <trkpt lat="46.1046" lon="3.47504">
        <ele>388.1</ele>
        <time>2022-02-23T23:02:40Z</time>
      </trkpt>
      <trkpt lat="46.10461" lon="3.47496">
        <ele>386.7</ele>
      </trkpt>
      <trkpt lat="46.10464" lon="3.47491">
        <ele>386</ele>
      </trkpt>
      <trkpt lat="46.10494" lon="3.47491">
        <ele>381.5</ele>
        <time>2022-02-23T23:02:45Z</time>
      </trkpt>
      <trkpt lat="46.10508" lon="3.47486">
        <ele>379.9</ele>
      </trkpt>
      <trkpt lat="46.10515" lon="3.47475">
        <ele>378.3</ele>
        <time>2022-02-23T23:02:54Z</time>
      </trkpt>
      <trkpt lat="46.10522" lon="3.47405">
        <ele>371</ele>
        <time>2022-02-23T23:03:04Z</time>
      </trkpt>
      <trkpt lat="46.10532" lon="3.47386">
        <ele>367.7</ele>
      </trkpt>
      <trkpt lat="46.10561" lon="3.47349">
        <ele>367.5</ele>
        <time>2022-02-23T23:03:15Z</time>
      </trkpt>
      <trkpt lat="46.1057" lon="3.47326">
        <ele>368.8</ele>
      </trkpt>
      <trkpt lat="46.10577" lon="3.47284">
        <ele>371.7</ele>
        <time>2022-02-23T23:03:22Z</time>
      </trkpt>
      <trkpt lat="46.10581" lon="3.47256">
        <ele>372.8</ele>
        <time>2022-02-23T23:03:32Z</time>
      </trkpt>
      <trkpt lat="46.10556" lon="3.47231">
        <ele>376</ele>
      </trkpt>
      <trkpt lat="46.10534" lon="3.47204">
        <ele>376</ele>
        <time>2022-02-23T23:03:45Z</time>
      </trkpt>
      <trkpt lat="46.10534" lon="3.47187">
        <ele>378.8</ele>
      </trkpt>
      <trkpt lat="46.10538" lon="3.47162">
        <ele>379.4</ele>
      </trkpt>
      <trkpt lat="46.10537" lon="3.47121">
        <ele>381.6</ele>
        <time>2022-02-23T23:03:59Z</time>
      </trkpt>
      <trkpt lat="46.10531" lon="3.47042">
        <ele>387.1</ele>
        <time>2022-02-23T23:04:11Z</time>
      </trkpt>
      <trkpt lat="46.10542" lon="3.47037">
        <ele>385</ele>
        <time>2022-02-23T23:04:15Z</time>
      </trkpt>
      <trkpt lat="46.10584" lon="3.47019">
        <ele>383.9</ele>
      </trkpt>
      <trkpt lat="46.1062" lon="3.47003">
        <ele>382.7</ele>
      </trkpt>
      <trkpt lat="46.10645" lon="3.46992">
        <ele>381.3</ele>
      </trkpt>
      <trkpt lat="46.10743" lon="3.46956">
        <ele>380.7</ele>
      </trkpt>
      <trkpt lat="46.10827" lon="3.46925">
        <ele>383</ele>
        <time>2022-02-23T23:05:25Z</time>
      </trkpt>
      <trkpt lat="46.10837" lon="3.46922">
        <ele>383.4</ele>
      </trkpt>
      <trkpt lat="46.10812" lon="3.46752">
        <ele>401</ele>
        <time>2022-02-23T23:05:53Z</time>
      </trkpt>
      <trkpt lat="46.10785" lon="3.46607">
        <ele>411.4</ele>
      </trkpt>
      <trkpt lat="46.10766" lon="3.46484">
        <ele>416.5</ele>
        <time>2022-02-23T23:06:38Z</time>
      </trkpt>
      <trkpt lat="46.10434" lon="3.46581">
        <ele>424</ele>
        <time>2022-02-23T23:07:57Z</time>
      </trkpt>
      <trkpt lat="46.10429" lon="3.46471">
        <ele>426</ele>
        <time>2022-02-23T23:08:15Z</time>
      </trkpt>
      <trkpt lat="46.10446" lon="3.46449">
        <ele>426</ele>
        <time>2022-02-23T23:08:20Z</time>
      </trkpt>
      <trkpt lat="46.10481" lon="3.46421">
        <ele>425</ele>
        <time>2022-02-23T23:08:30Z</time>
      </trkpt>
      <trkpt lat="46.10462" lon="3.4637">
        <ele>425</ele>
        <time>2022-02-23T23:08:39Z</time>
      </trkpt>
    </trkseg>
  </trk>
</gpx>